GEFSGL_500_meanwind_072.txt.gz
Wind_Speed
11 11 11 12 13 13 14 15 16 17 17 18 19 20 20 21 22 23 24 24 25 25 26 27 27 27 28 28 28 28 28 29 29 31 33 33 34 35 37 38 39 41 43
13 13 14 15 15 16 17 18 18 19 20 21 22 22 23 24 25 26 26 27 27 27 28 29 29 30 30 30 30 30 30 31 31 32 33 35 35 36 37 38 39 41 43
15 16 16 17 17 18 20 21 21 22 23 24 24 25 26 27 27 28 28 29 29 30 30 31 32 32 32 32 32 32 32 33 33 33 34 35 36 37 37 37 39 40 42
17 18 18 19 20 21 22 23 24 25 26 27 27 27 28 29 30 30 30 31 32 32 33 33 33 33 33 33 34 34 34 34 35 35 35 36 37 38 38 38 38 39 41
20 21 21 22 23 24 25 26 27 28 29 30 30 31 31 31 32 32 33 33 34 34 35 34 34 34 35 35 35 35 35 35 36 36 36 37 38 39 39 39 38 39 40
22 23 24 25 26 27 28 29 30 31 32 32 33 33 34 34 34 35 36 36 36 37 37 36 36 36 36 37 37 37 37 37 38 38 37 37 38 39 39 39 38 38 39
24 25 26 27 28 29 30 31 32 34 35 35 35 36 36 37 37 38 39 39 38 39 39 39 38 38 38 38 38 38 38 39 39 39 38 39 39 39 39 39 38 38 38
26 27 28 29 30 32 33 33 35 37 37 38 39 39 39 39 40 41 42 41 41 41 41 41 41 40 40 40 40 40 40 40 41 40 39 39 39 39 39 38 38 38 38
29 30 31 32 34 35 36 37 38 39 40 41 41 41 42 42 44 45 45 44 43 43 44 44 44 43 43 43 42 41 41 41 41 41 40 39 39 39 39 38 38 38 37
31 33 34 36 37 38 39 41 41 42 43 44 45 45 46 46 47 48 49 48 47 47 46 47 46 45 45 45 44 43 42 42 42 42 41 40 39 39 39 38 38 38 37
34 35 37 38 40 40 42 43 45 46 47 48 48 48 49 50 49 50 51 52 51 50 49 49 49 48 47 47 46 45 43 43 42 42 41 40 39 38 38 38 37 37 36
37 38 39 41 42 44 45 46 47 49 50 51 52 52 53 53 53 53 54 55 55 54 52 52 51 50 50 49 47 46 46 44 43 42 41 40 39 39 39 38 37 36 36
39 41 42 44 45 47 48 49 51 52 53 54 55 55 55 55 56 56 57 58 58 57 56 55 53 52 52 51 49 48 47 46 44 42 41 40 40 40 39 38 37 36 35
42 43 45 46 47 49 51 52 53 54 56 57 57 58 58 58 58 59 60 60 60 60 59 58 56 55 54 53 51 50 49 47 45 43 41 41 40 40 39 38 37 37 36
44 45 47 48 49 51 52 54 55 57 58 59 60 61 61 61 61 62 63 62 63 63 62 61 59 57 56 55 53 52 50 48 46 43 42 41 40 40 39 38 37 37 35
45 47 49 50 52 53 55 56 58 60 61 63 64 65 65 65 65 65 66 66 66 66 65 63 62 60 58 56 54 52 51 48 46 44 42 41 40 39 38 38 37 36 35
47 49 51 52 54 56 57 59 60 61 63 65 67 68 69 70 70 70 70 70 69 68 67 65 62 60 58 56 54 52 50 47 45 43 41 40 39 39 38 37 37 36 35
50 52 53 55 57 59 60 62 63 65 65 66 67 69 70 70 70 70 70 69 68 67 66 63 61 59 56 54 51 49 48 45 43 42 40 39 39 38 37 36 36 35 34
53 55 56 58 59 61 63 64 65 66 67 67 67 66 66 66 65 64 64 63 62 60 59 56 54 52 50 48 47 46 44 42 40 39 38 38 38 37 36 35 34 34 34
55 57 58 59 61 62 63 63 64 63 63 62 61 61 60 59 58 57 56 55 53 51 50 47 45 43 42 41 41 41 40 37 36 36 37 37 36 35 34 34 33 33 33
57 58 59 60 61 61 61 60 60 59 58 56 55 54 54 53 51 49 48 46 44 42 39 37 36 35 34 34 34 34 34 33 34 34 35 35 34 34 33 33 32 33 33
57 57 58 58 57 57 56 56 55 54 52 51 49 47 45 44 42 40 39 38 36 34 31 29 28 28 27 27 28 29 29 29 30 31 31 31 31 32 32 31 31 32 32
55 55 55 54 54 53 52 51 49 47 45 43 40 38 37 35 33 31 29 27 24 23 21 20 20 21 22 23 24 25 25 26 27 27 28 28 29 29 29 29 29 30 30
52 51 50 49 48 46 45 43 40 38 37 35 33 32 30 27 24 23 21 18 16 15 14 15 17 18 19 20 21 22 22 23 24 25 26 26 27 27 28 28 28 27 27
47 46 45 44 43 41 39 36 34 33 32 30 28 25 23 20 18 17 15 12 11 9 10 12 14 15 16 18 19 20 21 22 23 23 24 24 25 25 26 26 26 26 26
43 42 41 39 37 35 33 31 29 28 27 25 22 19 18 17 15 14 11 10 9 8 9 10 12 13 15 16 17 18 19 20 21 21 22 22 23 23 24 24 24 24 25

GEFSGL_500_meanwind_078.txt.gz
Wind_Speed
12 13 14 14 15 15 16 16 17 18 18 19 19 20 20 20 21 21 22 22 22 22 23 23 23 23 23 24 24 25 25 25 26 27 27 27 27 26 26 28 29 30 31
15 15 16 17 17 18 19 19 20 21 22 22 23 23 23 23 24 24 24 25 25 25 25 25 26 26 26 26 26 27 27 27 27 28 28 29 29 28 28 29 30 30 32
17 18 19 19 20 21 22 22 23 24 25 25 26 26 26 26 26 27 27 27 28 28 28 28 28 28 28 28 28 28 28 28 29 29 30 30 30 30 30 30 31 31 32
19 20 21 22 23 24 24 25 26 26 27 28 28 29 29 28 29 29 29 30 30 30 30 29 30 30 31 31 31 31 31 31 31 31 32 32 32 32 32 32 32 32 32
21 22 24 25 25 26 27 28 28 29 30 31 31 31 31 31 31 31 32 32 32 32 32 32 32 32 33 33 34 33 33 33 34 33 33 34 35 35 34 34 34 34 34
23 24 25 26 27 28 29 29 30 31 32 33 32 32 33 33 33 34 34 34 34 34 34 34 35 35 35 36 36 36 36 36 36 36 36 36 37 37 37 37 36 36 36
25 26 27 28 29 30 31 31 32 33 34 34 34 34 34 35 36 37 37 37 37 36 37 38 38 39 38 39 39 39 39 39 39 39 39 39 39 39 40 39 38 37 37
28 29 30 31 32 33 33 34 35 36 36 37 37 37 37 38 39 40 41 42 41 41 41 42 42 42 42 43 43 42 42 42 43 43 42 42 42 42 42 42 41 40 39
33 33 33 34 35 36 36 37 38 39 39 40 40 41 41 42 42 43 45 45 46 46 46 46 46 46 46 47 47 46 46 45 45 45 45 44 44 44 44 44 43 42 41
35 36 36 36 37 38 39 40 41 42 42 43 43 44 45 45 46 47 49 50 51 50 50 50 50 49 50 51 51 51 49 48 49 49 48 47 46 46 46 45 45 44 43
35 36 37 37 39 40 41 42 43 44 44 45 47 48 48 49 50 51 53 53 54 54 54 53 53 53 53 54 55 54 53 52 52 52 51 49 49 48 48 47 47 46 45
36 37 39 39 40 42 43 44 44 45 47 48 49 51 52 52 53 54 56 57 57 58 57 57 57 57 57 57 58 57 57 57 56 55 54 53 52 51 50 49 49 48 47
38 39 40 40 42 43 44 45 46 47 49 50 52 53 54 55 56 57 58 60 61 62 62 62 62 62 62 61 61 60 60 60 59 58 57 56 54 53 52 51 50 49 48
37 38 39 41 42 44 45 47 48 50 51 52 54 56 57 58 60 61 63 64 65 65 66 66 66 65 65 65 65 64 63 63 62 61 60 59 57 55 54 53 52 51 50
39 40 41 42 44 45 47 48 50 52 54 56 58 59 61 62 64 66 67 68 69 69 70 70 69 69 69 68 68 67 66 65 64 63 62 60 58 57 56 54 53 52 51
41 42 43 44 46 48 49 51 53 56 58 60 62 63 65 66 68 69 70 70 70 71 71 71 70 69 69 68 68 67 66 66 64 63 61 60 58 57 55 53 52 52 51
43 44 45 47 49 51 53 55 57 59 61 62 64 65 67 68 69 69 69 69 69 68 68 67 66 65 64 64 63 62 62 62 61 60 58 57 57 56 55 54 52 51 49
46 47 49 51 53 54 56 58 59 61 62 63 64 65 65 65 65 65 65 64 63 63 62 61 60 59 58 57 55 55 55 55 55 54 54 54 54 53 52 51 51 49 48
48 50 51 53 55 56 58 59 61 61 62 62 62 62 62 60 59 58 57 57 57 56 55 55 53 52 50 49 48 48 47 47 47 48 48 47 47 48 48 47 47 46 45
51 53 54 56 57 58 59 60 60 60 60 59 58 57 55 52 51 50 50 49 48 48 47 46 45 44 42 41 41 41 41 40 39 39 39 40 40 41 41 41 43 43 42
54 55 56 57 58 58 58 57 56 55 53 51 50 48 46 45 44 43 42 41 40 40 39 37 37 36 35 35 34 33 32 31 30 30 31 32 33 34 35 35 36 37 37
55 56 56 56 56 55 53 52 51 49 47 45 44 43 41 40 39 38 38 36 35 33 32 30 28 28 28 28 26 25 23 22 22 22 24 26 27 29 30 31 32 33 33
54 54 53 52 51 50 48 47 45 43 42 40 38 37 36 35 34 33 32 31 29 28 26 24 23 23 22 20 19 18 18 18 19 19 21 23 24 26 27 28 29 29 30
50 49 48 48 47 45 43 41 40 38 37 37 35 33 32 31 29 28 27 25 24 22 20 20 18 16 15 13 13 13 14 15 17 18 19 20 21 22 23 24 25 26 27
46 45 44 43 41 39 37 36 35 35 34 33 31 29 28 27 25 24 23 22 21 20 19 17 15 13 11 11 12 13 14 15 16 17 19 19 19 20 21 23 24 25 26
42 41 39 37 35 33 32 32 31 30 29 28 26 25 23 22 22 21 20 20 19 18 16 14 13 12 11 10 11 11 12 13 14 15 16 16 17 19 20 21 22 23 24

GEFSGL_500_meanwind_084.txt.gz
Wind_Speed
11 11 11 12 12 12 13 13 14 15 15 16 17 17 18 19 20 20 21 22 23 23 24 24 24 25 25 26 26 27 27 27 27 27 26 25 25 25 25 25 26 26 26
11 12 12 13 13 14 14 15 16 17 18 18 19 20 21 22 22 23 24 24 25 25 26 26 26 27 27 28 28 29 29 30 30 30 30 29 28 28 28 28 28 28 28
11 12 14 14 15 16 17 18 18 19 20 21 22 22 23 24 24 25 26 26 27 27 28 28 29 29 29 30 30 31 32 32 32 32 32 32 32 32 31 31 31 31 30
13 14 16 17 18 18 19 20 21 22 23 24 24 25 25 26 27 27 28 29 29 30 30 31 31 31 32 33 33 34 34 34 34 34 34 35 35 35 34 34 33 33 33
16 17 18 18 19 20 22 23 23 24 25 26 26 27 27 28 29 30 31 31 31 32 32 33 34 34 35 36 36 36 37 37 38 38 38 37 37 38 38 37 36 36 35
19 21 21 22 23 23 24 25 26 27 27 28 28 29 30 30 31 32 33 33 34 34 35 35 36 36 37 38 39 40 40 40 40 41 41 40 40 41 41 40 39 39 37
23 24 25 26 27 28 28 29 30 31 31 31 31 32 32 33 34 35 36 37 37 37 38 39 39 40 41 41 42 43 43 44 44 44 44 43 44 44 44 43 43 42 41
27 28 28 29 30 30 31 33 34 35 35 35 34 35 36 37 37 37 39 39 40 40 41 42 43 43 44 45 46 46 46 47 47 47 47 47 47 47 48 47 46 45 44
31 31 32 32 32 32 33 35 36 37 38 37 37 38 39 39 40 41 41 42 43 43 43 44 45 46 47 48 49 50 49 49 49 50 51 51 50 50 50 50 49 49 47
33 34 35 35 35 35 36 37 37 37 38 38 39 40 40 41 41 42 44 45 45 46 46 47 48 49 49 51 52 52 53 52 53 54 54 54 53 52 52 53 53 52 51
33 34 35 36 37 37 36 37 37 39 39 40 40 41 42 43 43 43 45 46 47 48 49 50 52 53 54 55 56 57 57 57 58 58 58 58 58 57 56 56 55 55 55
33 34 36 36 36 36 36 37 38 38 39 40 41 42 43 44 45 46 47 49 50 52 53 55 57 58 59 60 61 61 62 63 63 62 62 62 61 61 60 59 58 58 57
33 34 35 36 36 36 36 36 37 38 39 40 42 43 45 47 48 50 51 53 55 56 58 59 61 62 63 64 65 65 66 66 66 66 66 65 65 64 64 62 61 60 59
34 34 35 35 35 36 37 38 39 40 41 42 44 45 47 49 52 53 55 57 59 61 62 63 64 65 66 66 67 67 68 68 68 68 68 67 66 66 65 64 63 62 61
35 35 35 36 37 37 38 39 41 42 43 45 47 49 51 52 54 57 59 61 62 64 65 65 66 66 66 67 67 67 67 67 66 66 65 65 64 63 61 61 61 60 60
37 37 37 38 39 40 41 42 43 45 47 49 51 53 55 56 58 59 61 62 63 64 64 64 63 64 64 63 63 62 62 63 62 62 60 59 59 58 57 57 57 57 57
38 39 40 41 42 43 44 46 47 48 51 52 54 56 57 58 59 60 61 61 61 61 61 60 60 59 58 57 58 58 58 57 57 56 56 55 54 54 54 54 54 54 54
40 42 43 44 45 46 48 49 51 52 54 56 57 58 59 59 59 59 59 58 57 57 56 55 54 53 53 52 52 52 51 50 49 49 48 48 48 48 48 48 48 49 49
43 45 46 47 48 49 50 52 53 55 56 57 58 58 58 57 57 57 55 54 53 51 51 50 49 49 48 47 46 46 45 44 43 42 41 41 42 42 42 42 43 43 44
46 46 47 48 49 50 52 53 54 55 55 55 55 55 54 53 53 51 51 50 48 47 46 45 44 43 42 41 40 40 39 38 37 36 35 36 36 37 37 36 37 38 38
47 47 48 49 50 51 52 53 53 53 53 53 53 52 50 49 48 46 45 43 42 42 41 40 39 38 37 36 35 35 34 33 32 30 29 29 29 30 30 30 31 31 32
47 48 49 49 50 51 51 51 51 51 50 49 48 46 45 43 41 40 39 39 38 37 37 35 35 34 33 32 31 30 29 28 26 25 24 24 23 23 24 24 24 25 27
47 48 48 48 49 49 49 49 48 47 45 44 42 40 38 37 36 36 35 34 33 32 31 30 30 29 29 28 27 26 24 23 21 20 20 19 19 19 19 20 21 21 22
46 47 47 47 47 47 45 44 43 41 40 38 36 35 34 33 32 32 31 30 29 28 27 27 27 26 25 24 23 23 21 20 18 16 16 15 15 15 16 17 18 18 18
45 45 44 44 43 42 40 39 38 36 34 33 32 31 30 29 29 28 27 26 25 25 25 25 23 23 22 22 21 20 18 17 16 15 15 15 14 15 16 16 16 17 17
42 42 41 40 39 37 36 34 33 32 30 29 28 27 26 25 25 25 24 23 23 23 22 21 21 20 20 19 18 17 16 15 15 15 14 14 14 14 15 16 17 17 18

GEFSGL_500_meanwind_090.txt.gz
Wind_Speed
11 11 13 14 15 16 16 16 16 17 18 18 18 19 19 19 19 20 20 20 20 20 20 21 21 21 21 22 22 22 22 22 22 22 22 22 22 23 23 23 23 23 23
9 11 13 14 15 16 17 18 18 19 20 20 20 20 21 21 22 22 23 23 23 23 23 23 24 24 25 25 25 25 25 25 25 25 25 25 25 26 26 26 27 27 27
10 11 12 13 14 16 18 19 20 20 21 21 22 22 23 24 24 24 25 25 25 25 25 26 26 27 28 28 29 29 29 29 29 29 29 29 29 29 29 30 30 30 30
10 11 13 14 15 16 18 19 21 21 22 23 24 25 26 26 26 27 27 27 28 28 28 29 29 30 30 31 32 32 32 32 33 32 32 33 33 33 33 33 33 33 33
12 13 14 15 16 18 19 20 22 23 24 26 26 26 27 28 29 29 29 29 30 30 31 31 32 33 33 34 35 35 35 35 35 36 36 36 36 37 37 37 37 36 36
14 14 16 17 18 20 21 22 24 26 27 28 28 29 30 31 32 33 33 33 33 33 34 34 35 36 37 37 38 38 38 39 39 39 40 39 39 41 41 41 41 40 39
16 17 18 20 21 22 24 25 26 27 29 31 32 32 33 34 34 35 36 36 36 36 36 37 37 39 40 41 41 42 42 42 42 43 43 42 42 43 45 45 45 45 43
19 20 22 22 24 26 26 27 29 30 30 31 32 34 35 34 34 35 36 36 37 38 39 40 41 42 42 43 43 44 44 44 45 45 46 45 45 46 48 48 49 49 48
21 23 24 25 26 27 28 29 29 31 31 33 34 34 35 35 36 36 36 37 38 39 40 40 41 42 42 44 45 45 45 46 47 48 49 49 49 50 52 53 53 54 52
23 24 26 27 27 28 29 30 31 32 33 34 34 33 34 35 37 38 39 39 40 41 42 42 42 43 43 45 46 47 48 49 50 51 52 53 54 55 56 57 58 58 58
26 26 27 27 28 30 30 30 31 32 32 34 35 35 37 37 38 39 40 41 42 43 44 44 45 46 47 48 49 51 52 53 54 55 56 57 59 60 61 62 63 63 63
28 28 29 30 30 31 33 34 33 34 35 36 37 38 38 39 39 40 41 42 43 44 46 47 48 49 51 52 54 56 57 58 59 60 61 61 62 63 64 64 65 65 66
29 30 31 32 33 34 35 36 36 36 36 37 38 39 40 41 41 42 43 44 46 47 48 50 51 52 54 56 58 60 61 62 63 64 64 64 65 65 65 65 66 67 67
31 32 33 34 35 35 36 37 37 37 38 39 40 41 42 43 44 45 46 48 49 50 52 53 55 56 58 59 60 62 63 64 64 65 65 65 66 66 66 67 67 68 68
32 33 34 35 35 36 37 38 39 39 40 41 42 44 45 46 48 49 51 52 53 54 56 57 58 59 60 61 62 62 62 62 62 63 63 63 63 64 64 66 67 67 68
33 34 35 36 37 38 39 39 40 41 43 44 45 46 48 49 51 52 54 55 56 57 58 58 59 59 59 60 59 59 59 59 59 59 60 60 60 61 61 61 62 62 63
35 36 36 37 38 39 40 41 42 44 45 46 47 48 49 51 52 53 54 55 56 57 57 57 57 56 56 55 55 55 55 55 55 55 55 55 55 55 55 54 54 54 54
36 37 38 39 40 41 42 43 45 46 47 48 49 50 51 52 53 54 54 54 54 54 54 53 53 52 52 52 51 51 51 51 50 49 48 48 47 47 47 47 47 47 46
38 39 40 41 43 44 45 45 46 47 48 49 50 51 51 51 51 51 51 51 51 51 51 50 49 49 48 47 47 46 46 45 44 44 43 42 42 42 41 41 41 40 40
39 41 42 43 44 45 46 47 48 49 49 50 50 50 49 49 49 49 49 49 49 48 47 46 45 44 42 41 40 39 38 38 38 37 36 36 36 36 35 35 34 34 34
41 42 43 44 45 45 46 46 47 47 47 47 47 47 47 47 47 46 45 44 43 42 41 40 38 37 36 34 33 33 33 32 32 31 31 31 31 30 30 29 28 28 28
42 43 44 44 45 45 45 46 46 46 46 45 45 45 44 43 42 41 39 38 37 35 34 32 32 31 30 29 29 29 29 29 28 28 28 27 27 26 26 25 25 24 23
42 43 43 44 44 44 45 44 44 43 43 42 41 40 39 38 36 35 33 31 30 29 28 28 27 27 26 27 27 26 26 25 25 25 25 25 24 24 24 23 22 21 20
42 42 42 42 42 42 42 41 41 40 39 38 36 35 34 32 31 29 28 27 27 26 25 25 24 24 24 24 24 24 24 23 23 23 23 22 21 21 21 20 19 18 18
40 40 40 39 39 39 39 38 37 35 34 33 32 30 29 28 27 26 25 24 24 23 23 23 22 22 22 22 22 21 21 21 21 21 20 19 18 18 18 17 17 17 17
37 37 37 36 36 35 34 33 32 31 30 29 28 26 25 24 24 22 21 21 22 22 21 20 20 20 19 19 19 18 19 19 19 19 18 17 17 16 16 16 16 16 16

GEFSGL_500_meanwind_096.txt.gz
Wind_Speed
12 13 13 14 14 14 16 16 17 17 17 18 19 19 20 20 20 21 21 22 22 23 23 24 24 24 25 25 25 25 25 25 26 26 26 26 27 27 27 27 27 27 28
11 12 13 14 15 16 17 18 18 19 19 20 20 21 22 23 23 24 24 25 26 26 27 27 28 28 28 28 28 28 28 28 28 29 29 30 30 30 30 31 31 31 31
9 11 13 14 15 16 18 19 19 20 21 21 22 23 24 25 26 26 27 27 29 30 30 30 31 31 32 32 32 32 32 32 32 32 33 34 34 34 35 35 35 35 35
9 10 11 13 14 16 17 18 20 21 22 23 24 25 26 26 27 29 30 31 32 33 33 34 35 34 34 34 35 35 36 36 36 36 36 37 37 38 38 39 39 39 39
9 10 12 13 14 16 18 19 20 22 23 24 26 27 28 29 30 31 33 34 35 36 37 37 37 37 37 37 38 38 39 39 40 40 39 40 40 41 41 42 41 41 41
12 13 14 15 16 17 18 19 20 22 24 25 27 29 31 32 33 34 35 36 38 38 39 40 40 40 41 41 41 42 42 43 43 43 43 43 42 44 44 45 45 44 44
14 15 15 16 17 18 19 21 22 24 26 27 29 31 32 34 35 36 38 39 40 41 42 43 43 43 43 44 45 45 45 46 46 47 47 46 46 46 48 48 49 49 48
17 18 18 19 20 20 22 23 25 27 28 29 31 32 34 35 36 37 38 40 41 43 44 45 45 46 46 46 47 48 49 49 50 50 50 50 50 51 52 52 52 52 52
18 19 20 21 22 23 25 26 28 29 31 32 33 34 35 36 36 38 39 40 42 43 44 45 45 46 46 48 49 49 50 51 52 52 52 53 53 54 55 55 55 55 55
20 21 22 23 24 25 27 28 30 31 33 33 35 36 37 38 39 41 42 43 44 45 45 45 46 47 48 49 50 50 50 51 52 52 53 54 55 56 57 58 59 60 60
23 24 24 25 27 27 29 30 31 32 33 34 36 37 39 40 42 42 42 43 44 46 46 47 48 49 49 50 50 51 51 52 52 53 54 56 58 59 60 62 63 64 64
24 26 26 27 29 30 30 32 33 34 35 35 37 38 40 41 42 42 42 43 44 45 46 48 49 50 51 52 53 54 55 56 57 57 58 59 60 62 63 65 66 67 68
27 28 29 29 30 31 33 34 35 36 36 37 38 39 41 42 43 44 44 45 47 48 49 50 51 52 53 55 56 57 58 60 60 61 61 62 63 64 66 67 68 68 68
29 30 30 31 32 33 35 36 37 37 39 40 41 42 44 45 46 47 48 49 50 51 52 52 53 55 56 57 58 60 61 62 62 63 64 64 65 65 66 66 66 66 66
30 31 32 33 34 35 37 38 39 40 42 43 44 46 47 48 49 50 51 52 52 53 54 55 56 57 58 59 60 61 62 62 63 63 63 63 63 63 63 63 63 63 63
31 32 34 35 36 37 39 40 42 43 45 46 47 48 49 50 51 52 53 54 54 54 55 55 56 57 58 58 58 58 59 59 59 59 59 59 59 58 58 59 60 60 60
32 34 35 37 38 40 41 43 44 46 47 48 49 50 51 52 52 53 54 54 54 54 55 55 56 56 55 55 56 55 55 55 55 55 55 55 55 55 55 54 54 54 54
34 35 37 38 40 42 43 45 47 48 49 51 51 52 53 54 54 54 54 53 54 54 55 55 54 54 53 53 53 52 52 51 51 50 49 48 48 47 47 47 47 47 47
36 38 40 41 43 44 46 47 48 50 51 52 52 52 53 53 53 53 52 52 52 52 52 52 51 50 49 49 48 47 46 45 44 43 43 42 41 41 40 40 40 40 40
38 40 41 43 44 45 47 48 49 50 50 51 51 52 52 51 51 50 50 49 49 49 48 47 45 44 43 42 42 40 39 38 38 37 37 36 36 36 35 35 35 35 35
40 41 43 44 45 47 48 48 49 50 50 50 50 50 49 49 48 47 47 46 46 44 43 41 40 39 38 37 36 35 34 33 33 32 32 32 32 32 31 31 31 31 31
42 43 44 45 46 47 47 47 48 48 48 48 47 47 46 46 45 44 43 42 40 39 37 36 35 34 33 32 31 30 29 29 29 29 29 29 28 28 28 28 28 28 28
43 43 44 45 45 45 45 45 45 45 45 45 45 44 43 42 41 39 38 37 36 34 32 31 30 30 29 28 27 26 26 26 26 26 26 26 26 26 25 25 25 24 24
42 42 42 42 42 42 42 42 42 42 42 41 40 39 38 37 36 35 34 33 31 30 29 28 27 26 25 25 24 24 24 24 24 24 24 23 23 23 23 22 22 22 22
40 40 40 40 40 40 40 39 39 38 38 37 37 36 35 34 33 31 30 29 28 27 26 26 25 24 23 23 23 23 23 23 22 22 22 22 22 22 21 21 21 21 21
38 39 38 38 38 37 37 37 36 36 35 34 33 33 32 30 29 28 27 27 26 25 24 24 24 23 22 22 22 22 22 22 22 22 22 21 21 21 21 21 21 21 20

GEFSGL_500_meanwind_102.txt.gz
Wind_Speed
11 13 15 16 17 17 17 17 17 17 16 16 16 17 18 19 19 20 21 21 21 22 22 23 24 24 24 25 26 27 27 28 28 29 29 29 30 30 30 31 31 30 30
11 12 14 15 16 17 17 17 16 16 16 16 17 18 19 20 20 21 22 23 24 24 24 25 26 27 28 28 29 30 31 31 32 32 33 33 33 34 34 34 34 34 34
8 10 12 14 15 16 16 16 16 17 17 17 18 19 20 21 22 23 24 25 26 27 28 29 29 30 31 32 32 32 33 34 35 35 36 37 37 38 38 38 38 37 37
6 8 11 13 14 15 16 16 17 18 18 19 19 20 21 22 23 25 26 27 28 29 30 31 32 33 34 35 35 36 37 38 38 38 39 40 40 41 41 42 42 42 42
6 8 10 12 13 14 15 16 17 18 19 20 20 21 22 23 25 26 27 28 30 31 32 34 35 35 37 37 38 39 40 41 41 42 42 43 43 43 43 44 44 44 45
9 9 10 11 13 14 15 17 18 19 20 20 21 22 24 25 26 27 29 31 32 33 34 35 37 37 38 39 40 41 43 44 44 45 45 45 45 46 46 47 47 48 47
12 12 12 13 14 15 16 17 18 19 20 21 23 24 25 26 28 30 32 33 34 35 36 37 39 39 41 42 43 44 45 46 47 48 48 47 47 48 48 49 49 49 48
15 15 16 16 17 17 18 19 20 21 22 23 25 26 28 30 31 33 34 36 37 38 39 40 41 42 43 44 46 46 47 47 47 48 49 50 51 51 52 52 53 53 52
18 18 18 19 19 19 20 21 22 23 24 26 27 29 31 32 34 36 37 38 39 40 42 43 44 45 46 47 48 48 49 49 50 50 50 51 52 52 53 54 54 55 54
20 20 20 21 20 21 22 23 24 25 26 28 30 31 33 35 36 37 39 40 41 43 44 45 45 46 48 49 51 51 52 52 53 53 53 54 55 55 55 56 55 55 56
21 22 23 23 23 23 24 25 26 28 30 31 32 34 36 37 38 39 41 42 44 45 46 47 48 49 50 51 52 53 53 54 54 55 56 57 57 58 58 57 57 58 58
24 24 24 24 25 25 27 28 29 30 31 33 34 36 37 39 41 42 44 45 46 47 48 49 50 51 53 54 54 55 55 56 56 56 57 57 58 58 59 59 60 60 60
26 26 26 26 27 27 28 30 31 32 33 35 37 39 41 42 43 44 45 47 48 50 51 52 53 53 54 55 55 56 56 56 57 57 58 58 59 60 60 61 61 62 62
28 28 28 29 29 30 32 33 33 34 36 38 39 41 42 44 45 46 48 49 51 52 53 54 55 55 55 56 56 56 56 57 57 58 59 59 60 60 61 61 62 62 62
30 30 30 30 31 33 34 35 36 37 38 40 42 43 45 46 47 49 50 51 52 53 54 54 55 55 55 56 56 56 57 57 57 57 58 58 59 59 60 60 60 60 59
30 31 32 32 33 34 35 37 38 39 40 42 44 45 47 48 50 50 51 52 53 53 54 55 55 55 55 55 55 55 56 56 56 56 56 56 56 55 55 55 55 54 54
30 31 32 33 34 35 36 37 39 41 42 44 45 47 49 50 50 51 52 52 53 53 54 54 54 54 53 53 53 53 52 52 52 51 50 50 50 49 49 48 48 48 48
29 30 31 32 34 36 37 39 41 43 44 46 47 48 49 50 51 51 52 52 53 54 53 52 52 51 50 50 49 48 47 46 46 45 44 43 43 42 42 41 41 41 41
29 30 31 33 35 37 39 41 42 44 46 47 48 49 49 50 50 51 51 52 52 51 50 49 48 47 47 46 45 44 43 41 40 39 39 38 37 36 36 36 36 36 35
29 31 33 35 37 39 40 42 44 45 47 48 49 49 49 49 49 49 49 48 47 46 45 45 44 43 42 41 40 38 37 36 35 35 34 33 32 32 31 31 30 30 30
31 33 35 37 38 40 42 44 45 47 47 48 47 47 47 47 47 46 45 44 42 41 41 40 40 39 37 36 35 34 33 32 31 29 29 28 28 27 27 27 27 27 26
33 35 36 38 40 42 44 45 46 46 46 46 46 45 44 44 43 42 41 40 39 39 38 37 37 35 34 32 31 30 29 28 27 26 26 26 26 26 25 24 24 24 24
35 37 39 40 41 43 43 44 44 44 44 43 43 42 41 41 40 40 39 37 36 36 36 35 33 32 31 29 28 27 26 25 25 24 24 24 24 25 24 24 23 23 23
38 39 40 40 41 42 42 42 42 41 41 40 40 39 39 38 38 37 36 35 34 33 33 31 30 29 28 27 26 25 25 24 23 23 23 23 23 23 23 22 22 22 22
39 39 40 40 40 40 40 40 39 39 38 38 37 37 36 36 35 34 33 32 32 31 30 29 28 27 26 25 25 24 23 22 22 22 22 22 22 22 22 22 22 21 22
38 38 39 38 38 38 38 38 37 37 36 35 35 35 34 34 33 32 32 31 30 30 29 28 27 27 26 25 24 24 23 23 22 22 22 22 22 21 22 22 21 21 21

GEFSGL_500_meanwind_108.txt.gz
Wind_Speed
8 11 12 13 15 15 15 16 16 17 16 17 16 16 16 16 16 17 18 18 19 20 20 22 22 23 23 24 25 26 27 27 28 29 29 29 29 30 30 30 30 31 31
6 8 10 12 14 16 15 15 16 16 16 16 16 16 16 17 17 18 18 19 20 21 23 24 25 26 26 27 28 29 30 31 32 32 33 33 33 34 34 34 34 35 35
4 5 6 9 12 14 15 15 16 17 17 17 16 17 17 18 18 19 20 21 21 23 24 25 26 27 28 29 31 32 33 33 34 35 35 37 37 37 37 38 38 39 39
3 5 7 8 10 13 14 15 15 16 17 17 18 18 19 20 20 21 22 22 23 24 25 27 28 28 30 31 32 33 35 36 37 37 38 39 40 40 40 40 41 41 42
5 6 7 9 11 12 13 15 16 16 17 19 19 19 20 21 22 23 23 24 25 26 27 28 29 31 32 34 35 36 37 38 39 40 41 41 42 42 43 43 43 44 44
7 8 8 9 11 12 14 15 15 17 19 20 21 21 21 21 22 23 24 25 26 27 28 30 31 31 33 35 37 38 39 40 41 42 43 44 44 45 46 47 47 47 47
10 10 10 11 12 14 15 16 17 18 19 20 21 21 22 23 23 25 26 28 28 29 30 31 32 34 35 36 38 39 41 42 43 44 45 46 47 48 49 49 50 51 50
12 13 13 13 14 15 16 17 18 19 20 20 21 22 23 24 26 27 28 29 31 32 33 34 35 37 39 40 41 42 43 45 46 47 49 50 51 52 53 53 54 55 54
15 15 15 16 16 17 18 19 20 21 22 23 24 24 25 26 27 29 31 32 34 35 36 38 39 41 42 43 44 46 47 48 49 51 52 53 54 55 56 57 57 57 57
18 18 18 19 19 20 20 21 22 23 24 25 26 27 27 28 29 31 33 35 36 38 39 41 42 43 45 46 47 49 50 51 52 53 55 56 57 58 59 59 59 59 59
20 20 21 21 21 22 22 23 23 24 25 26 27 28 29 31 32 34 36 37 39 40 42 43 45 46 48 49 50 52 53 54 55 56 56 57 58 59 59 59 60 60 60
23 24 24 24 25 25 25 26 26 27 28 29 30 31 32 33 35 36 37 39 41 43 45 46 48 50 51 52 53 54 55 56 56 56 57 57 58 58 59 60 60 60 60
27 27 27 28 28 28 28 29 30 31 31 32 32 34 34 35 37 38 40 41 43 46 47 49 51 52 53 54 55 56 56 56 57 57 58 58 58 59 59 59 60 60 59
30 30 30 30 30 30 31 31 32 34 35 35 35 36 37 38 40 41 42 44 45 47 49 51 52 53 54 56 57 57 57 57 58 58 58 58 58 58 58 58 58 58 58
32 32 32 31 31 31 32 33 34 35 35 35 37 38 39 40 41 43 45 46 47 49 51 52 53 54 55 56 57 57 57 57 56 56 56 56 55 55 56 55 55 55 55
34 33 32 32 32 32 33 34 34 34 35 36 38 39 40 41 43 45 47 49 50 50 52 53 54 55 55 56 55 55 55 54 53 53 52 52 51 51 50 50 50 50 49
33 32 31 31 31 31 32 32 33 34 35 37 38 40 42 44 45 46 48 49 50 51 52 53 53 53 53 53 53 52 51 50 49 49 48 47 46 46 45 45 44 43 42
31 31 31 31 31 30 30 31 32 33 35 37 39 41 43 44 45 47 48 49 50 51 51 52 52 51 51 50 49 48 47 47 47 46 45 44 43 42 42 41 40 38 37
30 30 29 28 28 28 30 32 34 35 37 38 40 42 44 45 46 47 47 49 50 50 50 50 49 48 47 46 46 45 45 44 44 43 41 40 40 39 38 36 34 33 32
25 25 25 25 27 29 31 33 35 37 38 40 41 43 44 45 46 46 47 48 48 47 46 46 45 45 44 44 43 43 42 41 40 39 38 37 36 35 33 31 30 29 28
23 24 26 28 29 31 33 34 36 38 39 41 42 44 45 46 47 47 47 46 45 44 44 43 43 42 42 41 41 40 39 39 38 37 36 34 32 31 29 28 28 27 26
23 24 26 28 30 32 34 35 37 39 41 42 43 44 45 46 45 45 44 43 43 42 42 41 40 40 40 39 39 38 37 36 35 34 33 32 30 29 28 27 27 27 26
25 26 28 30 32 34 36 37 39 40 41 43 43 43 43 42 42 42 41 41 40 39 39 39 38 38 38 37 36 35 34 33 32 31 30 30 28 28 27 26 26 26 25
27 29 31 32 34 35 37 38 39 40 41 41 41 41 40 40 39 39 39 38 37 37 37 37 37 37 36 35 35 33 32 31 30 30 29 28 28 27 26 26 26 26 25
29 31 33 34 35 37 37 38 38 39 39 38 38 38 38 37 37 37 36 36 35 35 35 35 35 35 35 34 33 33 32 31 30 29 28 28 27 26 25 25 25 24 24
32 33 34 35 35 36 36 36 36 36 36 36 36 35 35 35 35 35 34 34 33 34 34 34 34 34 33 33 32 31 30 30 29 28 28 27 26 26 25 25 24 24 24

GEFSGL_500_meanwind_114.txt.gz
Wind_Speed
6 8 12 15 16 18 19 19 18 18 18 19 18 17 17 17 16 17 17 18 18 18 18 19 19 19 20 20 21 21 21 22 23 24 24 25 25 26 27 28 29 29 30
6 7 10 13 16 17 18 18 18 18 18 19 18 18 18 18 18 18 18 18 19 20 20 21 21 21 22 22 23 24 24 25 25 27 28 28 29 30 30 31 31 32 33
5 7 9 10 13 16 17 17 18 18 19 19 19 19 19 19 19 19 19 19 20 21 22 22 23 23 24 25 26 26 27 28 28 29 30 31 32 33 33 34 35 36 36
5 6 9 10 11 13 16 17 17 18 19 19 19 19 20 19 19 19 19 20 21 22 23 24 24 25 26 27 28 29 30 31 32 32 33 34 35 36 36 37 38 39 39
5 5 7 9 10 12 14 15 16 18 19 19 20 20 20 19 19 19 20 21 22 22 23 24 26 26 28 29 30 31 31 32 33 34 35 36 37 38 39 39 40 41 42
6 6 6 7 8 10 12 13 14 16 17 18 18 19 20 20 20 20 21 22 23 24 25 26 28 29 30 31 32 32 33 34 35 36 37 38 39 41 42 43 44 44 45
8 8 8 9 9 9 11 13 14 15 16 17 18 19 20 21 22 22 23 24 25 26 28 29 30 30 31 32 33 34 36 37 38 39 40 42 43 44 46 47 48 49 49
9 9 9 10 11 11 12 13 15 16 17 17 18 20 21 23 24 25 26 27 27 28 29 30 31 32 33 35 36 37 38 40 41 42 44 45 47 48 49 50 52 53 54
12 12 12 13 14 14 14 15 16 17 18 18 19 21 24 25 26 26 27 28 30 31 32 33 34 35 36 37 39 40 41 43 44 46 47 49 50 51 52 54 55 56 56
14 14 14 15 15 15 16 17 17 18 18 19 21 22 24 26 27 28 29 30 32 33 34 35 36 37 38 39 41 42 45 46 48 49 50 51 53 54 55 56 57 58 58
16 16 17 17 17 17 17 17 18 19 20 21 22 24 25 28 29 30 31 32 33 35 35 37 38 39 41 42 44 46 48 49 50 52 53 54 55 56 58 59 59 60 60
19 19 19 19 19 19 19 19 20 21 22 23 24 26 27 28 29 31 32 33 35 36 38 39 41 43 44 46 47 48 49 51 52 54 55 56 57 58 59 60 61 61 61
21 21 20 20 20 21 21 21 23 24 26 28 28 28 29 30 32 33 35 36 37 39 41 43 44 45 47 48 48 50 51 53 54 55 56 58 59 60 60 60 60 60 60
23 23 23 23 23 23 24 24 25 26 28 28 29 30 31 33 34 35 36 37 38 39 41 43 44 46 48 49 50 51 53 54 55 56 57 58 58 58 58 58 57 56 56
24 25 25 25 24 24 25 26 27 28 29 29 30 32 33 35 37 38 38 39 39 40 42 44 47 48 50 51 52 53 54 55 56 56 56 56 56 55 55 54 53 53 53
25 26 26 25 25 26 27 28 29 30 30 32 34 35 35 36 36 37 38 39 41 43 45 47 48 50 51 52 53 54 54 55 55 55 54 53 52 52 51 51 51 51 50
25 26 25 25 26 27 28 29 31 32 33 34 35 34 34 34 35 37 40 41 44 45 47 48 49 51 52 53 53 53 53 53 52 52 51 50 50 49 49 49 48 48 46
25 25 26 25 27 28 28 29 30 31 32 32 32 32 34 35 37 39 41 43 45 46 48 49 51 52 52 51 51 51 50 50 49 48 48 47 46 46 45 45 45 44 43
24 25 25 26 26 26 26 27 28 28 29 30 32 34 36 38 40 42 44 45 47 48 50 51 51 51 50 50 49 48 48 47 47 46 46 45 44 44 43 43 42 40 38
22 23 23 23 23 23 24 25 26 27 30 32 34 37 39 41 42 43 45 46 48 49 50 50 49 49 48 47 46 46 46 45 45 44 43 43 42 42 40 39 38 36 34
21 21 21 22 22 23 24 26 28 31 33 35 37 38 40 41 43 44 45 46 47 48 48 47 47 46 45 44 44 43 43 42 42 42 41 41 40 38 37 36 35 33 32
19 20 20 22 23 25 27 29 31 33 35 36 37 39 40 41 42 43 44 45 45 45 44 44 43 42 42 41 41 41 40 40 39 38 38 37 36 35 34 33 32 31 30
18 20 21 23 25 27 29 30 32 33 35 36 38 39 40 41 42 42 42 42 42 41 41 40 39 39 38 38 38 37 37 37 37 36 35 35 34 33 32 32 31 29 28
19 21 22 24 26 28 30 31 33 34 35 37 37 38 39 39 40 40 40 40 39 38 37 36 36 36 35 36 36 36 35 35 35 34 33 32 32 31 31 30 29 28 27
21 23 25 27 28 30 31 32 33 34 35 36 37 37 37 37 37 36 36 35 35 34 33 33 33 33 33 34 34 34 33 33 33 32 32 32 31 30 29 29 28 27 26
23 25 27 28 30 31 32 33 34 34 34 35 35 34 34 33 33 32 32 32 32 31 31 31 30 30 31 32 32 32 32 32 31 31 31 30 30 29 28 27 27 26 25

GEFSGL_500_meanwind_120.txt.gz
Wind_Speed
9 10 12 13 14 15 17 19 20 20 20 20 20 21 21 21 21 20 20 20 20 20 20 20 20 20 20 21 22 22 23 23 24 24 25 26 26 27 28 28 29 30 31
7 9 10 12 14 15 17 18 18 20 20 20 21 21 21 21 21 21 21 21 21 21 22 22 22 23 23 23 23 24 24 24 26 27 28 29 29 30 31 32 33 34 35
7 8 9 11 13 15 17 18 18 20 20 20 20 20 20 21 22 22 22 22 22 23 23 24 24 24 25 25 25 26 26 27 28 29 30 31 32 33 34 35 36 36 37
7 7 8 10 12 14 16 17 18 19 20 20 21 20 21 21 21 22 23 23 24 24 24 24 25 25 25 26 27 28 28 29 30 31 32 33 35 36 36 37 38 39 40
8 8 8 10 11 13 15 16 16 17 19 19 19 19 20 21 21 22 23 24 24 24 25 25 25 26 27 28 29 30 31 31 32 34 35 36 37 38 39 40 41 42 43
8 8 9 10 11 12 14 15 16 16 17 19 20 20 20 20 21 22 23 23 24 24 25 26 27 28 29 30 31 32 34 35 36 37 38 39 40 41 41 43 44 45 46
10 10 10 10 10 12 13 14 16 17 17 18 19 20 20 20 21 23 24 25 25 26 27 28 28 30 32 33 34 36 37 38 39 40 41 42 43 44 45 46 47 49 50
11 10 10 10 10 10 11 12 15 16 18 19 20 21 21 21 22 23 24 26 26 27 29 30 31 33 34 35 36 37 38 40 41 42 44 45 46 48 49 51 52 53 55
14 13 13 12 12 12 13 13 15 16 17 18 19 20 21 21 22 24 25 26 27 29 30 32 34 34 35 37 38 39 41 42 43 45 47 48 49 51 52 54 55 56 57
17 16 17 16 15 15 16 16 16 17 19 20 20 21 22 23 24 25 26 27 29 31 32 35 36 37 38 39 40 42 44 45 47 48 50 52 53 54 55 56 57 58 59
19 18 18 19 18 18 18 19 19 20 20 21 22 23 24 25 27 27 28 30 32 33 34 35 37 38 39 40 42 44 46 48 50 51 52 53 54 56 57 58 60 61 62
20 20 21 21 21 20 20 21 20 20 19 21 23 24 25 27 28 31 32 33 34 35 36 36 38 39 41 42 44 47 48 50 51 52 53 55 56 58 59 61 61 62 63
22 22 22 22 22 21 21 21 22 22 22 23 24 25 27 28 30 31 32 34 35 36 38 39 40 43 44 45 46 48 49 51 52 54 55 57 59 60 61 61 62 62 63
23 23 23 22 22 22 21 22 23 24 25 26 27 27 29 30 32 33 34 35 37 38 39 40 42 44 45 46 47 49 51 53 54 56 57 59 60 60 61 61 61 60 60
23 23 22 22 22 23 24 24 26 27 28 29 29 30 31 32 34 35 35 36 38 39 41 42 43 45 46 48 49 51 53 54 56 57 58 58 59 59 59 59 58 58 57
25 25 25 25 24 25 25 26 27 29 30 30 31 32 33 34 36 36 36 38 40 42 43 43 45 46 47 49 51 53 54 56 57 57 57 57 57 56 56 56 55 55 54
24 24 25 25 25 25 25 27 28 28 28 29 31 33 34 35 35 37 38 40 41 42 43 44 45 47 49 50 52 53 54 54 55 55 55 55 54 53 53 53 52 51 50
23 23 24 25 25 26 26 27 27 28 30 31 33 33 34 35 36 38 39 40 40 41 43 45 47 48 49 50 51 51 52 52 52 52 52 51 51 50 50 49 49 47 46
22 23 24 25 25 25 26 27 28 30 31 32 33 34 34 35 36 37 38 40 41 43 44 45 46 47 48 49 49 49 49 49 49 49 49 48 48 47 46 46 44 43 42
22 22 23 23 25 26 26 27 28 30 31 32 33 33 34 35 36 38 39 41 42 43 44 45 46 46 46 46 46 46 47 47 46 46 45 45 44 44 43 42 41 40 39
21 22 23 24 25 26 26 26 27 29 30 31 32 33 34 36 37 38 40 40 41 42 43 43 44 44 44 44 44 44 44 43 43 42 42 41 41 40 39 39 38 38 37
20 21 22 22 23 24 25 26 28 29 30 31 33 34 35 36 37 38 39 40 41 41 41 41 41 42 42 42 41 41 40 40 39 39 39 38 38 37 37 36 36 36 35
19 20 21 22 23 25 26 28 28 29 31 32 33 34 35 35 36 37 38 38 39 39 39 39 40 39 39 38 37 37 37 37 37 37 37 37 36 35 35 35 34 34 33
19 20 21 22 23 25 26 27 28 29 30 31 32 33 33 34 35 35 36 36 36 37 37 36 36 36 35 35 35 35 35 35 35 35 35 35 34 34 34 33 33 32 31
20 21 22 23 25 26 27 27 28 29 30 30 31 32 32 33 33 34 34 34 34 34 34 34 33 33 32 33 33 33 33 33 33 33 33 33 33 32 32 32 31 30 30
20 21 23 24 24 25 26 27 28 28 29 30 30 31 31 32 32 32 32 32 32 32 32 31 31 31 31 31 31 31 32 32 32 31 31 31 31 31 31 31 30 30 29

GEFSGL_500_meanwind_126.txt.gz
Wind_Speed
8 9 10 11 12 13 15 16 17 19 21 21 21 22 22 23 23 22 22 21 21 21 21 21 21 22 22 23 24 24 24 25 25 25 26 26 27 27 28 29 29 30 31
6 8 11 12 12 13 15 16 17 18 20 21 22 22 22 23 23 23 23 22 22 22 23 23 23 24 24 25 25 26 26 26 27 27 28 28 29 30 31 32 32 33 34
6 7 9 11 12 13 14 16 17 19 20 21 22 22 22 21 22 22 23 23 23 24 24 25 24 24 25 26 27 27 28 29 29 29 30 31 31 32 34 35 36 37 38
7 8 9 10 11 13 14 15 16 17 18 20 21 21 21 21 21 22 22 23 24 25 25 25 25 26 26 27 28 29 29 30 31 32 33 33 34 35 36 37 39 40 40
8 9 10 10 11 12 13 15 15 16 17 19 20 21 21 21 21 22 22 23 24 26 27 27 27 27 28 29 30 31 31 31 32 34 35 35 36 38 39 40 41 42 43
10 11 12 12 12 13 14 15 15 16 17 18 19 20 21 21 22 22 23 24 25 25 26 27 27 27 29 30 31 32 34 34 34 36 37 38 39 40 41 42 43 45 47
12 12 12 13 13 13 14 15 16 17 18 19 19 20 20 21 22 23 24 24 25 25 27 28 29 30 32 32 32 33 35 36 37 38 40 40 41 42 44 45 46 48 49
15 14 14 14 15 15 15 16 18 20 21 21 21 22 23 23 23 24 24 25 25 26 28 29 30 31 32 32 33 34 35 37 38 41 42 42 43 45 46 48 48 49 51
17 16 16 17 17 17 17 18 19 20 21 22 22 23 24 25 25 26 27 28 28 28 28 30 31 32 33 33 35 36 37 38 40 41 42 44 45 46 48 49 51 52 53
19 18 18 18 19 20 20 19 20 21 22 23 24 24 24 25 26 26 27 29 29 29 30 31 32 33 34 35 37 39 40 41 42 43 44 46 47 49 50 51 52 54 55
21 21 20 20 20 21 21 21 21 22 23 23 23 23 24 25 26 27 29 30 30 31 32 32 34 36 37 38 39 41 43 44 45 46 47 48 49 50 51 53 54 56 57
23 23 22 22 23 23 23 23 23 24 25 24 24 24 24 25 26 28 29 31 32 33 33 35 36 37 39 41 42 43 44 45 46 47 48 49 51 52 53 55 56 58 59
24 23 23 24 24 25 25 26 27 26 26 26 26 26 27 27 28 29 30 32 33 34 35 36 38 39 40 42 43 44 44 45 46 48 49 51 52 54 55 56 57 58 59
25 25 25 26 26 26 25 26 26 27 27 28 28 27 28 29 30 30 32 34 35 35 36 38 39 41 42 43 43 43 44 45 47 49 50 51 53 54 55 55 56 56 56
26 26 26 27 27 27 27 27 26 27 27 27 28 29 29 29 30 32 35 35 36 37 39 40 41 42 43 42 43 44 45 46 48 49 50 51 52 53 54 54 54 54 54
27 27 27 27 27 27 27 27 28 28 28 28 29 30 31 32 33 34 34 34 35 37 39 41 41 42 42 43 44 45 46 46 48 49 50 50 51 51 52 52 52 52 52
26 26 27 27 26 27 27 26 26 26 27 28 29 30 31 32 32 32 33 35 36 38 39 40 40 40 41 42 43 44 45 46 47 48 49 49 49 49 49 49 49 49 49
25 25 25 26 26 26 27 27 28 28 28 29 29 29 31 31 32 34 35 36 37 38 38 39 39 40 41 42 42 43 45 46 46 47 47 47 47 47 47 47 47 46 46
24 24 24 25 25 25 26 26 26 27 28 28 28 29 30 31 33 34 35 35 36 37 37 38 38 39 40 41 42 43 44 45 45 45 45 44 44 44 44 44 44 43 43
22 22 22 22 22 23 24 25 25 26 28 28 28 29 30 31 32 33 34 35 35 36 36 36 37 39 40 41 41 42 43 43 43 42 42 42 41 40 40 40 39 39 39
20 20 20 21 21 21 22 24 25 26 27 27 27 28 29 30 31 32 33 34 34 35 35 36 37 38 39 40 40 40 40 40 39 39 38 38 37 37 37 37 37 37 36
17 18 19 19 20 21 22 23 24 25 25 26 27 27 28 29 30 31 32 33 33 34 35 36 36 37 38 37 37 37 36 36 36 35 35 34 34 34 34 34 34 34 34
16 17 18 19 20 21 21 22 23 24 25 25 26 27 28 29 30 30 31 31 32 32 33 34 35 35 35 34 34 33 33 32 32 32 32 32 32 32 32 32 32 32 32
17 17 18 19 20 21 22 22 23 24 24 25 26 26 27 28 28 28 29 30 30 31 32 32 32 32 31 31 30 30 30 30 30 30 30 30 30 30 30 30 30 30 31
16 18 18 19 20 21 22 22 23 23 23 24 24 25 26 26 27 27 28 28 29 29 29 29 29 28 28 28 28 28 28 28 28 28 28 28 28 28 28 28 29 29 30
17 18 18 19 19 19 20 20 21 21 22 23 24 24 25 25 25 25 26 26 25 25 25 25 25 25 25 25 25 25 26 26 26 26 26 26 27 28 28 28 29 29 29

GEFSGL_500_meanwind_132.txt.gz
Wind_Speed
7 8 9 10 10 10 12 13 14 15 15 16 17 18 19 21 21 22 22 23 23 22 22 22 22 22 22 22 22 23 23 23 24 25 25 25 26 27 28 28 28 28 30
8 8 9 9 10 10 11 12 14 16 17 18 18 19 19 20 22 22 22 23 23 23 22 23 23 23 23 23 23 24 25 25 25 25 26 27 28 29 30 31 31 31 32
9 9 9 10 10 11 12 14 15 16 18 18 18 18 19 20 21 20 21 21 21 22 22 23 24 25 25 25 25 25 25 26 26 28 29 29 30 31 32 32 33 34 35
9 9 10 10 11 12 13 14 15 16 17 18 18 18 18 19 19 19 20 21 21 22 22 22 24 24 25 25 26 26 27 28 29 30 31 31 32 33 34 34 36 37 37
10 10 10 11 11 12 13 13 14 15 16 16 17 17 18 19 19 20 20 21 21 22 22 23 24 24 25 25 27 28 29 30 31 31 32 33 34 35 35 36 38 39 40
12 12 12 12 13 13 13 14 14 15 15 15 15 16 17 18 19 20 20 21 22 23 24 25 25 26 27 27 28 29 31 32 33 34 34 35 35 36 37 38 39 40 42
15 15 14 14 14 14 14 14 14 15 15 16 17 17 18 18 19 20 21 22 24 25 25 26 26 27 28 29 29 30 32 33 34 36 36 37 37 38 39 40 41 43 45
17 17 16 16 16 16 16 16 16 16 16 17 17 18 19 20 20 21 22 24 25 26 26 26 27 28 28 29 30 31 32 34 36 37 38 39 40 40 42 43 44 46 47
20 19 19 18 18 18 18 18 18 18 18 18 18 19 20 21 23 24 24 26 27 28 28 28 29 30 30 30 32 33 34 36 36 38 39 41 42 43 44 45 46 46 47
22 21 20 20 20 20 20 20 20 20 19 19 20 21 22 24 25 25 26 27 28 29 29 30 31 31 31 32 33 35 36 37 38 40 41 42 44 44 45 45 46 47 49
24 24 23 22 22 22 22 22 22 22 21 21 22 23 24 25 26 27 28 29 29 28 28 29 30 31 32 33 35 37 38 39 40 41 42 42 43 44 45 46 47 49 50
26 25 25 24 24 23 23 23 22 22 22 22 23 24 25 26 26 27 27 28 28 28 28 29 31 32 33 35 36 38 40 40 41 42 43 44 45 45 46 47 48 50 51
26 26 25 25 25 24 23 23 23 23 24 25 25 25 26 26 26 26 27 27 28 29 29 29 31 33 35 36 38 39 41 41 42 43 43 44 45 46 48 49 50 51 51
28 27 26 26 26 25 24 25 25 25 26 26 27 26 26 26 26 26 26 27 28 29 30 32 33 35 37 38 39 40 40 41 41 42 43 44 45 46 47 49 50 50 51
27 27 27 26 26 26 25 25 25 26 27 27 26 25 25 26 26 27 28 30 31 32 33 35 36 37 37 38 39 40 40 40 41 42 43 44 45 46 47 48 48 49 50
26 26 26 26 25 25 25 25 25 26 26 26 26 26 26 27 29 30 30 30 31 33 35 36 36 36 37 38 38 38 39 40 40 41 43 43 44 45 46 47 48 48 49
25 25 25 25 24 24 24 25 25 26 26 26 26 27 28 28 29 30 31 32 33 34 35 35 36 37 37 37 37 37 38 39 40 41 43 43 44 45 45 46 46 45 45
24 25 25 24 24 24 24 24 24 25 25 26 27 28 28 29 29 30 31 32 32 33 34 34 34 34 35 35 36 37 38 39 40 41 42 42 43 43 43 43 42 42 41
23 24 25 24 23 23 24 24 24 24 24 25 26 26 27 28 28 29 30 31 31 31 31 32 32 33 34 36 36 37 37 38 39 40 40 40 40 40 40 40 39 39 38
22 22 23 23 22 22 23 23 23 23 24 25 25 26 26 26 28 28 28 29 29 30 31 31 32 33 34 34 35 35 36 37 37 37 37 37 37 37 36 36 36 36 35
21 21 21 21 21 21 22 22 23 23 24 24 25 25 25 25 26 27 28 28 29 30 31 31 32 32 32 32 33 34 34 34 34 34 34 33 33 33 33 33 33 33 33
21 20 20 20 20 21 22 23 23 23 23 23 24 24 24 25 26 27 27 28 29 30 30 31 31 31 31 31 32 32 32 31 31 30 30 30 30 30 30 31 31 31 32
19 19 19 19 19 20 20 21 22 21 21 22 22 22 23 24 26 27 27 28 29 29 30 29 29 28 29 29 29 29 29 28 28 27 27 27 27 28 29 29 29 30 31
17 17 18 18 19 19 20 20 20 20 21 21 21 22 23 24 25 26 26 27 27 27 27 26 26 27 27 27 27 27 26 25 25 25 26 26 26 27 27 28 29 29 30
17 16 17 17 18 19 19 20 20 20 20 21 21 22 22 23 23 24 24 24 25 25 25 25 25 25 25 25 25 24 24 24 24 25 25 25 25 26 26 27 28 29 30
17 17 18 18 19 20 19 19 19 20 20 20 21 21 21 21 21 22 23 23 23 23 23 23 24 24 24 24 23 23 23 23 23 23 23 24 24 25 26 27 28 28 29

GEFSGL_500_meanwind_138.txt.gz
Wind_Speed
6 6 6 6 7 8 9 10 11 13 14 15 16 17 17 18 18 19 20 21 21 21 22 22 22 22 23 23 23 23 22 22 22 23 22 23 23 24 24 25 26 27 27
5 5 6 6 7 8 9 10 11 12 13 15 16 17 18 18 19 20 21 21 21 21 22 22 22 22 23 23 24 24 23 23 24 24 24 25 25 25 25 26 28 28 29
6 6 7 7 8 9 10 11 11 12 13 14 16 17 18 18 19 20 20 21 21 20 21 21 21 22 22 24 24 24 25 25 25 26 26 27 27 27 28 29 29 30 32
8 7 8 8 8 9 10 11 12 13 13 15 15 17 18 19 19 19 18 19 20 21 20 21 22 22 23 23 24 25 25 25 26 26 26 27 28 29 30 31 32 33 34
8 8 9 9 9 9 10 10 11 11 12 13 14 15 16 17 18 18 18 18 19 20 21 22 22 23 23 24 25 25 25 26 27 27 28 29 30 31 33 34 35 36 37
10 10 10 10 10 10 10 10 11 12 12 13 14 15 16 17 18 18 19 20 21 22 22 23 23 24 25 25 25 26 26 27 28 29 30 31 32 34 34 36 37 38 40
12 12 12 12 12 12 12 12 12 13 13 14 14 15 16 17 18 19 20 20 21 21 22 23 23 24 25 26 27 27 28 29 30 31 32 32 34 35 36 38 39 40 41
14 14 14 15 15 14 14 14 14 14 15 14 15 16 18 19 19 19 21 21 21 22 23 23 24 25 25 26 26 27 28 29 31 31 32 34 35 36 38 39 41 43 44
17 17 17 17 16 16 16 16 16 16 16 16 16 17 17 18 18 20 21 21 22 23 24 25 25 26 27 28 28 28 30 31 33 34 34 35 37 39 40 42 43 45 46
19 19 19 18 18 17 17 17 17 17 17 18 18 19 19 19 20 20 20 21 23 24 25 26 26 27 28 28 29 31 32 33 34 35 36 37 39 41 42 44 45 47 47
21 21 20 20 19 19 19 19 19 19 19 20 20 20 21 21 22 22 22 23 24 25 26 27 27 28 28 29 31 31 32 33 35 36 37 39 41 42 44 45 46 46 47
23 23 22 22 21 21 21 21 21 21 21 21 21 22 22 22 22 23 24 25 25 26 26 27 27 28 28 30 31 31 33 35 37 38 39 41 42 43 43 43 44 45 46
24 24 24 23 23 23 23 22 22 22 22 22 22 22 23 22 23 24 25 25 25 25 26 26 27 28 29 31 32 33 35 36 37 38 40 41 41 42 42 42 44 45 46
25 25 25 24 24 23 23 23 23 23 23 23 23 23 23 24 24 25 25 26 26 27 27 27 29 30 31 33 34 34 36 37 38 38 39 40 40 41 42 43 44 45 46
25 25 24 24 24 23 23 23 23 23 23 23 23 23 24 24 25 25 25 26 26 27 27 29 30 30 31 33 34 36 37 37 38 38 39 39 40 41 42 42 43 43 44
26 25 24 24 24 24 23 23 23 23 23 24 24 25 25 25 25 26 25 25 26 27 29 30 31 31 33 33 34 35 35 36 37 38 38 39 40 40 40 41 41 42 42
26 26 25 24 24 24 23 23 23 23 23 23 24 25 25 25 26 26 25 26 27 28 29 30 31 31 32 33 33 34 35 36 37 37 38 38 38 38 39 39 40 40 40
26 25 25 24 24 24 23 22 22 22 23 24 24 24 24 24 25 25 25 26 27 28 29 30 30 30 31 32 33 34 35 36 36 37 36 36 36 36 37 37 37 36 36
26 25 24 24 23 23 22 22 22 22 23 24 23 23 23 23 24 25 26 27 28 28 29 29 29 30 31 33 33 33 34 35 35 35 34 34 34 35 34 34 33 33 33
26 25 24 23 22 21 21 22 22 23 23 23 23 23 23 23 23 24 25 26 27 27 27 28 29 30 31 32 32 33 33 33 33 32 32 32 32 31 31 30 30 30 30
25 24 23 22 21 21 21 21 22 22 22 22 23 23 23 23 24 24 25 25 25 25 26 27 29 29 30 30 30 31 31 31 30 30 30 29 28 28 27 27 27 27 28
23 22 22 21 21 20 20 21 21 21 21 22 22 22 23 23 23 24 24 25 25 26 27 27 28 29 29 29 28 28 28 28 28 28 27 27 26 25 25 25 26 26 27
22 22 22 21 20 20 20 20 21 20 20 21 21 22 22 22 22 23 23 24 25 25 26 26 27 27 26 26 26 26 26 26 26 26 25 24 23 23 24 24 24 25 25
21 21 20 20 20 20 20 20 20 20 21 21 22 21 21 22 22 22 23 23 23 24 24 24 24 25 24 24 25 25 25 25 25 24 23 22 22 22 22 23 23 23 24
20 19 19 19 19 19 19 19 19 20 20 20 20 20 21 21 22 22 22 22 23 24 24 24 24 24 24 24 24 24 24 24 23 23 22 21 21 21 21 22 22 23 24
18 19 19 19 19 19 19 19 19 20 20 20 20 21 21 22 22 22 22 23 23 24 24 24 24 24 24 24 24 24 23 23 22 21 21 20 20 20 21 21 22 23 23

GEFSGL_500_meanwind_144.txt.gz
Wind_Speed
6 7 7 7 7 7 8 10 11 12 13 14 15 16 18 19 20 20 20 21 22 22 22 23 23 23 24 24 24 25 25 25 26 26 26 26 26 27 27 27 28 28 29
6 6 6 6 7 8 8 9 10 11 13 14 15 16 18 19 20 20 20 21 22 23 23 24 25 25 25 25 24 24 25 26 26 27 28 29 29 29 29 30 30 31 31
7 7 6 7 8 9 9 10 10 10 12 13 15 16 17 19 20 20 21 22 22 23 25 25 25 25 24 25 25 26 26 26 26 27 28 30 30 30 30 31 32 32 33
7 7 6 7 7 8 10 10 11 12 13 13 14 16 17 19 20 22 22 23 23 24 24 24 24 24 25 25 26 27 27 27 27 28 28 29 31 32 32 33 34 34 36
8 8 8 7 8 9 10 10 11 12 13 14 15 16 17 18 20 21 22 22 23 23 24 25 24 24 25 26 27 28 27 27 28 28 29 31 32 33 34 35 36 37 38
9 9 9 9 10 11 11 11 12 12 13 14 15 15 17 18 19 21 21 22 22 23 24 24 24 25 26 27 27 27 27 27 28 29 30 31 32 33 34 36 37 38 39
11 11 11 12 12 12 13 13 13 14 14 14 15 16 16 17 19 20 20 21 22 23 23 24 24 25 26 26 27 28 28 28 30 31 32 32 33 34 35 37 38 40 40
12 13 13 14 14 15 15 15 16 16 16 16 16 16 17 18 18 19 21 22 22 23 23 24 25 26 27 28 28 29 30 31 32 33 33 33 34 35 37 38 40 41 42
14 15 15 15 15 16 17 17 18 18 18 18 18 18 18 19 18 18 20 21 22 23 24 25 26 26 27 28 29 30 31 33 33 33 33 34 35 37 38 39 41 42 44
16 16 17 17 17 18 19 19 19 19 20 20 20 20 20 20 20 20 21 21 23 23 24 25 25 26 27 28 29 30 32 33 33 33 34 35 36 38 39 41 43 44 45
18 19 19 19 19 20 20 21 21 21 21 21 21 21 21 22 22 22 22 23 23 24 25 25 26 27 28 29 30 31 32 32 33 34 34 35 37 38 39 41 42 44 45
20 21 21 22 22 22 22 22 22 23 22 23 23 23 23 23 23 23 23 24 24 25 25 26 27 28 28 29 30 32 32 32 33 33 34 36 37 38 39 41 41 42 43
22 23 23 23 23 23 23 23 23 23 23 23 23 23 23 24 24 24 25 25 26 27 28 28 28 28 29 30 31 32 33 33 34 35 36 37 37 38 38 39 40 41 41
24 24 24 24 24 24 24 24 24 24 23 23 24 24 24 24 24 25 25 26 27 27 28 29 29 29 30 31 32 33 34 35 35 36 36 36 37 37 38 39 39 40 41
25 26 26 25 25 25 25 25 25 24 25 25 25 25 25 25 25 25 26 26 26 27 28 29 30 30 31 32 32 32 34 35 36 36 35 36 37 38 38 38 39 39 40
27 27 26 26 26 26 27 26 26 26 26 26 26 26 26 26 25 25 26 26 27 28 29 30 31 31 31 32 32 33 34 34 35 35 35 36 37 37 37 37 38 38 38
29 28 28 27 27 27 27 27 27 26 27 27 27 26 26 26 26 26 26 27 28 29 30 30 30 30 32 32 32 33 33 34 34 35 35 35 36 36 36 37 37 37 36
29 29 29 28 28 27 27 27 27 27 26 26 26 26 26 26 26 27 28 29 29 30 30 30 30 31 32 32 32 32 33 34 34 34 34 34 35 35 35 35 35 34 33
29 29 29 28 27 27 27 27 27 26 26 26 25 25 26 26 27 28 28 29 29 29 29 30 30 30 31 31 31 31 32 32 32 32 33 33 33 33 33 33 32 32 31
29 28 28 27 28 28 28 27 27 26 26 25 25 25 26 26 27 27 28 29 29 29 30 30 30 30 30 30 30 30 31 31 31 31 31 32 32 32 31 31 30 29 29
28 28 27 28 28 28 27 27 26 26 25 25 25 25 26 26 26 27 28 28 29 29 29 29 29 29 29 29 29 29 30 30 30 30 30 31 30 30 29 28 27 26 27
27 27 27 28 27 26 26 26 26 25 25 25 24 25 25 26 26 27 28 28 28 28 28 28 28 27 27 28 28 29 28 28 28 28 28 28 28 27 26 25 25 25 26
26 26 26 26 26 26 26 26 26 25 25 25 25 25 26 27 28 28 28 28 27 27 27 26 26 26 27 27 27 27 26 26 27 27 27 27 26 25 25 25 24 25 25
26 26 25 25 25 26 25 25 25 25 25 25 25 25 26 26 27 27 27 26 26 26 25 25 26 26 26 26 26 26 25 26 26 26 26 25 25 24 24 24 24 24 24
24 25 24 24 25 25 24 24 25 25 25 25 25 25 25 25 25 26 26 25 25 25 25 25 26 26 26 26 25 25 25 25 25 25 25 25 24 23 23 23 23 23 24
23 23 23 23 23 23 23 24 24 23 23 24 24 24 24 25 25 26 26 25 25 25 25 26 26 26 26 26 25 25 24 25 25 25 25 24 23 23 23 23 23 23 23

GEFSGL_500_meanwind_150.txt.gz
Wind_Speed
8 8 8 8 9 9 9 10 10 11 11 12 13 15 16 16 17 18 19 20 21 22 22 23 23 23 24 24 25 25 25 25 26 26 27 27 28 28 28 29 29 29 30
7 8 8 8 8 9 10 10 10 11 11 12 13 14 16 17 17 18 19 21 22 22 23 24 25 25 26 26 26 26 26 27 27 27 27 28 28 29 30 29 30 31 32
7 7 8 9 9 9 9 10 10 11 12 12 13 14 15 16 18 19 20 21 22 22 23 24 25 25 26 26 26 27 26 26 26 27 28 28 28 29 29 30 31 32 32
7 8 9 9 10 10 10 10 11 11 12 12 13 14 15 16 18 19 20 21 22 23 24 25 25 26 26 26 26 26 26 25 26 28 28 29 29 29 30 31 32 33 33
8 9 10 10 10 10 10 10 11 12 12 13 14 15 16 17 17 19 20 21 22 23 24 25 24 24 25 26 25 25 26 27 27 29 30 30 30 30 31 32 33 34 34
10 10 10 10 10 11 11 12 12 13 13 14 15 15 16 17 18 18 19 20 21 22 23 24 23 23 24 24 25 25 26 27 28 29 30 31 31 32 32 33 34 35 36
11 11 11 11 11 12 12 12 13 14 14 15 15 16 17 17 18 19 19 20 20 21 22 22 23 23 23 23 24 26 27 28 29 30 31 31 32 32 34 35 36 37 38
13 13 13 13 13 13 13 14 15 15 16 17 17 17 18 18 19 19 19 19 20 21 21 21 22 23 23 24 25 26 27 28 29 29 29 30 32 33 34 35 37 38 38
14 14 14 15 15 15 16 16 16 17 18 18 18 18 19 19 20 20 20 20 20 21 21 21 22 23 24 25 26 26 27 28 28 29 29 30 31 32 32 34 35 36 37
16 16 16 16 16 17 17 18 18 19 19 19 19 20 20 21 21 21 21 21 21 22 23 23 23 24 25 25 26 26 27 27 28 28 29 30 31 31 32 33 34 35 36
18 18 18 18 18 18 19 19 20 20 20 21 21 22 22 23 23 23 23 23 23 23 23 24 24 24 25 25 25 26 27 27 28 29 30 30 31 31 32 33 35 35 36
19 20 20 20 20 21 21 22 22 22 22 23 23 24 24 24 24 24 24 24 24 24 24 25 25 25 25 26 26 27 27 28 29 30 30 31 32 33 33 34 34 35 36
21 21 21 22 22 23 23 24 24 24 25 25 25 25 25 25 25 25 25 25 24 25 25 25 25 26 27 28 28 28 28 29 30 31 31 32 33 34 34 35 35 36 36
23 23 23 24 24 25 25 25 25 25 25 26 26 26 26 26 26 26 26 26 26 25 26 26 26 27 28 28 29 29 29 30 30 31 32 33 34 34 35 36 36 36 35
26 25 25 25 26 26 26 26 26 26 26 26 26 26 26 26 26 27 27 27 27 27 28 28 28 28 28 29 30 30 30 31 32 32 33 34 35 36 36 36 36 35 35
28 28 27 27 27 28 28 28 28 28 27 27 27 27 27 28 28 28 28 29 29 29 29 29 29 29 29 30 31 31 31 32 32 33 34 35 35 35 35 35 35 34 34
29 29 29 29 30 30 30 29 29 29 29 29 29 29 29 30 30 30 30 30 29 30 30 30 29 30 31 32 32 32 32 32 33 34 34 34 33 33 33 33 33 32 32
30 30 30 31 31 31 30 30 30 30 30 30 30 31 31 30 30 30 30 30 30 30 30 30 30 31 31 32 32 32 32 32 32 33 33 33 32 31 31 31 30 29 29
31 31 32 32 32 32 32 32 32 31 31 31 31 31 31 31 30 30 30 30 30 30 30 30 30 31 31 32 32 32 31 31 31 32 31 30 30 30 29 28 28 28 27
32 32 32 32 32 32 32 33 32 32 31 31 30 30 31 31 30 30 30 29 29 29 29 29 30 30 30 31 31 31 31 30 30 29 28 27 27 27 27 27 27 26 26
32 32 32 32 32 32 32 31 32 32 31 31 31 31 30 30 30 29 29 29 29 29 29 29 29 30 30 30 30 30 30 29 28 27 26 26 26 27 27 26 26 25 25
31 31 31 31 31 30 31 31 31 31 31 31 31 30 30 29 29 28 28 28 28 29 28 29 30 30 30 29 28 28 28 28 26 25 25 25 26 26 25 25 25 25 24
30 30 30 29 30 30 30 30 31 31 31 31 30 30 30 29 28 28 27 28 28 28 28 28 28 28 27 27 27 27 27 26 25 24 25 25 25 25 25 24 24 23 23
29 29 29 29 29 29 30 30 30 29 29 29 29 28 28 27 27 27 27 28 28 27 28 28 28 27 27 27 26 26 25 25 24 24 25 25 25 25 24 24 23 23 23
29 29 29 29 29 29 28 28 28 27 28 28 27 27 27 27 26 26 26 26 26 26 27 27 27 26 26 25 25 24 24 24 24 24 24 25 25 25 24 24 23 23 23
28 27 27 27 26 26 26 26 26 26 27 27 26 26 26 25 25 25 25 26 26 26 26 26 26 25 25 25 25 24 24 24 24 25 25 25 25 25 25 24 24 23 23

GEFSGL_500_meanwind_156.txt.gz
Wind_Speed
11 10 10 9 9 9 9 10 10 11 12 12 12 12 12 12 13 15 16 17 18 19 20 21 21 22 23 24 24 24 24 24 24 24 24 24 24 23 23 24 24 25 25
11 10 10 9 9 9 10 11 11 11 12 12 13 13 14 14 15 15 17 18 19 19 20 21 22 23 23 24 24 24 24 24 24 24 25 25 24 24 24 25 26 26 27
12 11 11 10 10 10 10 11 11 12 12 13 14 14 15 15 16 17 17 19 20 21 21 22 23 24 24 24 25 25 25 25 24 24 24 25 25 24 25 25 26 27 28
12 11 11 11 11 11 12 12 12 13 14 14 15 15 15 16 17 17 18 19 20 21 22 22 23 24 24 24 24 25 25 25 24 24 24 26 26 26 27 27 28 29 30
13 13 12 12 13 13 13 13 13 14 14 15 15 16 16 17 17 18 19 19 20 21 21 21 22 23 24 24 24 24 24 25 25 25 26 27 27 28 28 29 30 31 31
14 14 13 13 14 14 13 13 13 14 14 15 15 16 17 17 18 18 19 20 20 20 21 22 22 23 23 23 23 24 25 26 26 26 27 28 28 29 30 30 31 31 31
15 15 15 15 15 14 14 14 14 15 15 16 16 17 18 18 19 19 19 20 20 21 22 22 22 23 23 23 23 24 25 26 26 26 27 28 29 29 30 30 31 32 32
17 17 16 16 16 16 16 16 16 16 17 17 17 18 19 19 20 21 21 22 22 22 22 23 23 23 23 23 24 25 26 26 26 26 27 27 28 29 31 32 32 33 33
18 18 18 18 18 17 17 17 18 18 19 19 19 20 21 21 22 22 23 23 23 23 23 23 23 24 24 24 24 24 25 25 26 27 28 29 30 31 32 32 33 33 33
19 19 19 19 19 19 19 19 19 20 20 20 21 22 23 23 24 24 24 24 24 24 24 24 24 24 24 25 25 25 25 26 26 27 28 29 29 30 31 33 34 34 34
20 20 20 20 20 21 21 21 22 22 22 22 22 23 24 24 24 25 25 26 25 25 25 25 25 25 26 26 27 27 27 28 28 29 29 30 30 31 33 34 34 34 34
22 22 23 23 23 23 24 24 24 24 24 24 24 25 25 26 26 26 26 26 26 26 26 26 26 27 28 28 28 28 28 29 30 30 31 31 32 33 33 33 34 34 34
25 25 25 25 25 25 26 26 26 26 26 26 26 26 26 27 27 27 27 27 27 27 27 27 27 28 29 29 29 30 30 31 32 32 32 32 33 34 34 34 34 34 34
27 27 27 27 27 28 28 27 28 28 28 28 28 28 28 28 28 28 28 28 28 28 28 29 29 30 30 30 31 31 32 32 33 33 33 32 33 33 33 34 34 35 36
30 29 29 29 30 30 30 29 30 30 30 30 30 30 30 29 30 30 30 30 29 30 30 30 31 31 31 32 33 33 33 33 34 33 33 32 32 33 33 34 34 35 36
31 31 31 31 31 32 32 32 32 32 32 32 32 32 31 31 31 31 31 31 31 31 32 32 32 33 33 33 34 34 33 33 34 33 33 33 33 33 34 34 35 35 35
33 33 33 33 32 33 33 33 34 34 33 33 33 33 33 33 33 33 33 33 32 32 33 33 33 34 34 34 34 34 34 33 33 33 33 33 34 34 34 34 34 34 34
35 35 34 34 34 34 34 34 35 34 33 34 34 35 34 35 34 34 34 34 34 34 34 34 34 34 35 35 34 34 33 32 33 33 34 34 34 34 34 33 33 33 32
36 35 34 34 35 35 35 35 35 35 34 34 35 35 35 35 35 35 34 34 34 34 34 35 35 35 35 34 33 33 33 33 33 33 33 33 33 32 32 32 32 31 30
36 36 35 35 35 35 35 35 34 35 34 34 35 35 35 35 35 35 35 34 34 35 35 35 35 34 34 33 32 32 32 32 32 32 31 31 31 31 30 30 30 30 29
36 37 37 37 36 36 36 35 35 35 35 35 35 35 35 35 35 34 34 34 34 34 34 34 33 33 32 31 31 31 31 31 31 31 31 30 30 30 29 29 29 29 28
37 37 36 36 36 35 35 35 35 35 35 35 34 34 34 34 33 32 33 34 34 34 33 32 31 31 30 30 30 30 30 31 30 30 30 29 29 29 29 29 28 28 27
36 36 35 35 35 34 35 35 35 35 34 34 33 33 33 33 33 33 33 32 32 31 30 30 30 30 30 30 29 29 30 30 29 29 29 29 28 28 28 28 27 26 26
34 34 34 34 35 35 34 34 33 32 32 32 32 32 32 31 31 31 31 30 30 30 29 29 29 29 29 29 29 29 29 29 29 29 29 28 28 28 27 27 26 26 26
33 33 34 34 33 33 33 32 31 31 31 31 31 31 31 30 30 30 30 30 30 30 29 29 28 28 29 29 29 29 29 30 30 29 29 28 28 28 27 26 26 26 27
33 33 33 33 32 32 31 31 31 31 30 31 30 29 29 29 29 29 30 30 29 29 29 29 29 29 29 29 29 29 29 29 28 28 28 28 27 27 26 26 26 26 26

GEFSGL_500_meanwind_162.txt.gz
Wind_Speed
7 7 7 7 6 6 6 6 7 7 7 8 9 9 10 10 11 12 12 12 13 14 15 16 17 18 19 20 21 21 22 23 23 23 24 24 24 25 25 26 25 24 24
8 8 8 7 7 7 7 7 7 8 9 9 10 10 11 11 12 12 12 13 14 15 16 17 18 19 20 21 22 23 23 23 24 24 24 25 24 25 25 25 24 25 25
8 9 9 8 8 8 8 8 8 9 9 10 11 11 11 12 12 12 13 14 15 16 17 18 18 19 20 21 22 22 23 24 24 24 24 25 25 25 25 24 25 25 26
9 10 10 9 9 9 9 9 9 10 10 11 11 12 12 12 13 13 14 15 15 16 17 18 19 19 20 21 21 21 22 22 23 24 25 25 26 25 25 25 26 26 26
11 12 11 10 10 10 10 11 11 11 11 11 12 13 13 14 14 14 15 15 16 17 18 19 19 20 21 21 21 21 21 22 23 23 24 24 25 25 26 26 27 27 27
12 12 11 10 10 11 11 11 12 12 12 12 12 13 14 14 15 15 16 17 17 18 19 19 19 19 20 20 21 21 21 22 22 22 23 24 25 25 26 27 27 28 29
13 13 11 11 11 12 11 12 12 12 13 13 13 14 15 15 16 16 17 17 18 19 19 19 20 20 21 21 21 21 21 22 22 23 23 23 24 25 26 28 29 30 30
14 13 13 12 13 13 13 13 14 14 14 14 14 15 16 16 17 17 18 18 19 19 20 20 21 21 21 21 21 21 22 22 23 23 24 24 24 25 27 29 30 31 31
15 15 14 14 14 14 15 15 15 15 15 15 16 16 16 17 18 18 19 19 20 21 21 21 21 21 21 21 22 22 23 23 25 26 26 26 27 27 28 29 31 32 32
17 17 16 16 16 16 17 17 17 16 16 17 17 18 18 19 19 20 21 21 21 21 21 22 21 21 22 22 22 23 24 25 26 27 27 28 28 28 29 30 31 32 33
18 18 18 18 18 18 18 18 18 18 19 19 19 19 20 21 21 21 21 21 21 22 22 22 22 23 23 23 24 25 26 27 27 28 29 30 30 30 30 31 32 33 33
20 20 20 20 20 20 20 20 20 20 21 21 21 22 22 23 23 23 23 23 23 23 24 24 24 25 25 25 26 27 27 28 29 30 31 31 32 31 32 32 33 34 34
23 22 22 22 21 21 21 22 22 22 22 22 23 24 25 25 25 26 26 26 26 26 26 26 27 27 27 28 28 29 29 30 31 32 32 33 33 33 33 33 33 33 33
24 24 24 23 23 23 23 24 25 25 24 25 26 26 27 27 28 28 28 29 29 29 29 29 29 29 30 30 30 30 31 32 33 33 33 33 33 34 34 33 33 32 32
25 25 26 26 25 25 25 26 26 27 27 27 27 28 29 30 30 30 30 30 31 32 32 32 32 32 31 32 32 32 32 33 33 33 33 33 33 34 34 33 32 32 32
28 28 28 27 27 27 27 28 29 30 30 30 30 30 31 31 32 31 32 32 32 33 34 33 33 33 33 33 33 33 33 32 33 34 34 33 33 32 32 31 31 31 31
30 30 30 30 30 30 29 29 30 31 31 32 33 33 33 33 33 32 33 33 33 33 33 33 34 34 34 34 33 33 33 33 33 33 33 33 33 32 31 31 31 31 32
30 30 31 31 32 32 31 32 32 33 33 34 34 34 34 34 34 33 34 34 33 33 33 33 34 34 34 34 34 34 33 33 32 32 32 32 32 31 31 31 31 32 32
32 32 32 33 32 33 33 34 34 35 35 35 35 34 34 33 33 33 34 34 34 34 34 33 33 33 33 34 34 33 32 31 31 31 31 31 31 31 30 31 31 31 31
33 32 33 33 32 33 34 34 35 35 35 34 34 34 34 34 34 34 34 34 34 34 33 32 32 32 33 33 33 32 31 31 31 31 31 30 30 30 30 30 30 31 30
34 34 34 33 33 34 34 34 34 34 35 35 35 35 34 34 34 34 34 33 33 32 32 32 32 32 31 31 32 32 31 31 31 31 31 30 30 30 30 30 30 29 29
35 35 34 35 35 35 35 35 35 36 36 35 35 34 34 34 34 34 33 33 32 32 31 31 31 31 32 32 31 31 30 30 30 30 29 29 29 29 29 29 29 29 29
35 35 34 34 34 35 35 35 35 36 35 34 33 33 33 33 32 33 32 32 31 31 31 30 30 30 30 30 30 30 30 30 30 30 30 30 30 29 30 29 29 29 29
36 35 35 34 34 34 35 35 35 35 34 33 33 33 33 32 32 32 31 31 30 30 29 30 30 30 30 30 30 30 30 30 30 30 30 30 29 29 29 29 29 29 29
35 35 35 35 35 35 35 35 34 34 33 33 33 32 32 31 31 31 30 29 29 29 29 29 30 31 31 31 30 30 31 31 31 30 30 30 30 30 29 29 29 29 28
33 33 33 34 33 33 33 33 32 32 32 32 31 30 30 30 30 29 29 28 29 29 30 30 30 30 30 30 30 30 31 31 30 30 30 30 30 29 29 28 28 28 27

GEFSGL_500_meanwind_168.txt.gz
Wind_Speed
8 8 8 8 8 8 8 9 9 9 9 9 9 10 11 11 12 12 13 13 14 14 15 16 16 17 18 19 21 22 23 23 23 23 25 26 26 26 26 26 25 25 26
8 8 8 8 9 9 10 10 10 10 10 10 11 11 12 12 13 13 14 14 14 15 16 16 17 18 18 19 20 21 22 23 24 23 24 25 26 26 26 26 26 26 26
9 9 9 9 10 10 10 11 11 11 11 11 12 12 13 13 14 14 14 14 15 15 16 16 17 18 19 20 20 21 22 23 23 24 24 25 25 25 25 26 26 27 27
10 9 9 10 11 11 12 11 11 12 13 13 13 14 14 14 14 15 15 15 16 17 17 18 19 20 21 22 22 23 23 24 24 24 24 24 25 24 25 26 27 28 28
10 10 11 11 12 12 12 12 12 12 13 13 14 14 15 16 16 16 16 16 17 17 18 19 20 20 21 22 22 23 23 23 24 24 24 24 24 25 25 27 27 28 29
12 12 12 12 12 13 13 13 13 13 13 14 15 15 16 17 16 16 17 18 18 18 19 20 21 22 22 22 22 23 24 24 24 24 24 24 25 26 27 28 28 28 29
13 13 13 13 13 14 14 14 14 14 15 16 16 17 17 17 17 18 18 19 19 19 20 20 21 22 22 23 23 23 23 24 24 24 25 25 26 27 27 28 29 29 30
16 15 15 16 15 15 15 15 15 16 16 17 18 17 17 18 19 19 20 20 20 21 21 22 22 22 23 23 23 24 24 25 25 26 26 27 27 27 28 28 29 30 30
18 17 16 17 17 17 17 17 17 17 17 17 17 17 17 18 19 19 20 21 22 22 22 22 22 23 23 24 24 25 26 26 27 27 28 28 29 29 30 31 31 31 32
19 18 18 18 18 19 19 19 18 18 18 18 18 17 17 18 18 19 20 21 22 23 23 24 24 25 25 26 26 26 27 27 28 29 30 30 30 31 32 33 33 33 33
20 20 20 20 20 20 20 20 19 19 19 19 19 18 18 18 19 20 21 22 23 23 24 25 25 26 27 27 27 28 28 29 30 30 31 31 32 33 34 34 34 35 35
21 21 21 21 21 20 20 20 20 20 20 20 20 20 20 20 21 22 23 24 24 25 25 26 27 27 28 29 29 29 30 31 31 31 32 33 34 34 34 35 35 36 36
24 23 23 22 22 21 21 21 21 22 22 22 22 22 23 23 24 24 25 26 26 27 27 28 28 29 30 31 31 31 31 32 32 33 33 34 35 35 35 35 36 36 36
26 25 25 24 24 24 24 23 23 24 24 24 24 24 25 26 26 27 28 28 28 29 30 30 31 31 31 32 32 32 33 33 34 34 35 36 36 36 36 36 36 35 35
27 27 26 26 25 25 25 25 25 26 25 26 26 27 27 27 28 29 30 30 31 31 32 32 33 33 32 33 33 33 34 35 35 36 36 36 36 36 36 36 35 35 35
29 28 28 27 27 27 27 27 27 27 27 27 28 28 29 29 30 31 31 32 33 33 33 33 33 34 33 33 34 34 35 35 35 35 35 36 36 36 35 35 35 34 34
30 30 29 29 29 29 28 28 28 28 28 29 29 30 31 32 32 33 33 34 33 34 34 34 34 33 33 34 34 35 35 35 35 35 35 35 35 35 34 34 34 34 33
32 31 31 31 30 30 29 29 29 30 30 31 31 32 33 34 34 35 35 34 34 35 35 34 34 34 34 34 34 35 35 34 34 35 35 34 34 34 34 33 33 33 33
33 33 33 32 31 31 30 31 31 31 31 31 32 33 34 34 35 35 35 34 34 35 35 35 35 35 34 34 34 34 34 34 34 34 34 33 33 33 33 32 33 33 32
33 33 33 33 32 32 32 32 32 33 33 33 34 34 35 35 35 35 34 34 34 34 34 35 35 35 34 34 34 34 34 34 33 33 32 33 32 32 32 32 32 32 32
34 34 34 34 34 34 34 34 34 34 35 35 35 35 36 35 35 35 35 35 35 35 35 35 35 34 34 34 34 34 33 32 32 32 33 33 32 32 32 32 31 31 32
35 34 35 35 35 35 36 36 36 36 36 36 36 36 36 37 36 35 35 36 36 35 35 34 34 33 33 33 33 33 33 32 32 33 32 32 32 32 32 31 31 31 31
36 36 36 36 36 36 36 36 36 36 37 37 36 36 36 36 36 35 35 35 34 34 34 33 33 32 32 32 32 32 32 32 32 33 32 32 33 33 32 32 32 32 31
35 35 35 36 36 36 36 36 36 37 38 36 35 35 35 34 34 34 34 34 34 34 34 34 33 32 32 32 32 32 33 32 32 32 32 32 33 32 32 32 32 32 31
35 35 35 35 34 35 36 35 35 36 35 34 33 33 33 34 34 34 34 34 34 34 33 33 33 32 32 33 32 32 32 32 32 32 32 32 32 32 32 31 31 30 30
33 34 34 33 33 34 34 34 34 34 33 32 32 32 32 33 33 32 32 32 32 32 32 31 31 32 32 32 32 32 32 32 32 32 32 32 31 31 31 31 31 31 31

GEFSGL_500_meanwind_174.txt.gz
Wind_Speed
9 9 9 10 9 8 9 10 10 10 11 11 11 11 12 12 13 13 14 15 15 15 16 16 17 18 18 18 18 18 19 19 20 21 22 24 25 25 24 25 25 25 25
9 10 10 10 9 9 10 10 11 11 12 12 13 13 13 13 14 15 15 16 16 16 16 17 18 18 18 19 19 19 20 20 21 21 22 24 24 25 25 25 25 25 25
10 10 11 11 11 11 11 11 12 13 14 14 15 14 15 15 15 15 15 15 16 17 17 17 18 18 19 19 20 20 21 21 22 23 23 24 24 24 25 25 25 25 25
10 10 11 11 11 12 12 12 13 13 14 15 15 16 16 16 16 16 16 16 16 17 18 18 18 19 19 20 20 20 21 22 23 23 23 24 24 24 25 25 25 25 26
11 11 12 12 13 13 14 14 14 14 14 15 16 16 17 17 17 18 18 18 18 18 19 19 19 19 20 21 21 21 22 23 23 23 24 24 24 25 25 25 26 26 27
12 12 13 14 15 15 15 15 16 16 16 16 16 16 16 17 18 19 19 20 20 19 20 20 20 20 21 21 22 23 23 24 24 24 24 25 25 25 26 26 27 27 28
13 14 14 15 16 17 17 17 17 17 17 17 17 18 18 18 19 19 20 19 20 20 21 21 21 22 23 23 23 24 24 25 25 25 25 25 26 27 27 28 28 28 29
15 15 16 17 18 18 18 19 19 18 19 19 18 18 18 19 20 20 21 21 20 20 20 21 22 22 23 23 24 25 25 26 27 27 27 27 28 28 29 29 29 30 31
17 18 19 19 19 19 20 20 20 20 20 20 20 19 19 20 20 20 21 21 21 21 22 22 23 23 24 24 25 26 27 28 29 29 29 29 29 30 30 31 31 32 33
20 20 20 20 20 21 21 21 21 20 20 21 21 21 21 21 21 21 21 21 21 22 23 23 23 24 24 25 26 27 28 29 30 30 30 31 31 31 32 33 33 34 34
22 22 22 21 22 21 21 22 22 22 22 22 23 23 22 23 23 22 23 23 23 23 24 24 25 26 26 27 28 29 29 30 30 30 31 31 32 33 33 34 34 35 35
23 23 22 22 22 22 22 23 23 23 23 24 24 24 24 25 24 24 25 26 25 25 26 26 27 28 28 29 29 30 30 30 31 32 32 33 33 34 35 35 36 36 35
23 23 23 23 24 23 24 24 24 24 24 24 25 25 25 25 25 26 27 27 27 27 28 28 29 29 30 30 31 31 32 32 33 33 34 34 34 35 35 36 36 36 36
26 25 25 25 25 25 25 25 25 25 25 25 26 26 26 26 27 28 28 28 28 29 30 30 30 31 32 32 32 33 33 33 33 34 34 35 35 35 36 36 37 36 36
28 28 28 28 27 27 27 27 27 27 27 27 27 27 27 28 28 29 29 29 30 30 31 31 32 33 33 33 34 34 34 34 35 35 36 36 36 36 36 36 36 36 36
31 30 30 29 28 28 28 28 28 29 29 29 28 28 28 29 29 30 31 31 32 32 32 33 33 34 34 34 35 35 35 36 36 36 36 36 36 36 36 36 35 35 35
32 32 31 31 31 31 30 30 30 30 30 30 31 31 31 31 31 32 32 33 34 34 34 34 35 35 36 36 36 36 35 35 35 35 35 35 35 35 35 35 35 35 34
34 33 33 33 33 32 32 32 32 32 32 32 32 33 33 33 33 34 34 35 35 36 36 36 36 37 37 36 36 35 35 35 35 35 35 35 35 35 35 35 34 34 34
35 34 34 34 34 33 33 33 33 33 33 33 34 34 34 34 35 35 35 36 36 37 36 36 37 37 37 36 36 35 35 35 34 34 34 35 34 34 34 34 34 34 33
36 34 34 34 34 34 34 34 34 34 34 34 35 35 35 36 37 37 37 37 37 36 36 36 37 37 37 36 36 35 35 35 35 34 34 34 33 33 33 33 33 33 33
36 35 35 36 36 35 35 35 35 35 36 36 36 36 36 37 37 37 37 38 37 36 37 37 38 37 37 37 36 35 35 35 34 34 34 34 34 33 33 33 33 33 33
36 36 36 37 37 36 35 35 36 36 35 36 36 37 37 37 38 38 38 37 37 37 37 37 38 38 37 36 35 35 35 34 34 34 34 34 33 33 33 33 33 33 33
35 35 35 36 36 36 36 36 36 36 37 38 38 37 37 37 37 37 37 37 37 36 36 36 36 35 34 34 34 33 33 33 33 33 34 33 33 33 33 33 33 33 33
34 34 35 36 36 36 36 36 36 37 37 38 37 37 37 37 36 36 35 35 35 35 34 34 34 34 34 34 34 33 33 33 33 33 33 33 33 33 33 33 33 33 33
34 35 36 35 34 34 35 35 35 35 36 36 36 36 35 35 34 34 34 34 34 33 33 33 34 34 34 34 34 33 33 32 32 32 32 33 33 33 33 33 32 32 31
34 34 35 35 34 34 34 34 34 34 34 35 35 35 34 34 34 34 34 34 34 34 34 34 34 34 34 33 33 33 32 32 32 33 33 33 33 33 33 33 32 32 32

GEFSGL_500_meanwind_180.txt.gz
Wind_Speed
14 14 13 13 13 12 12 11 11 10 11 11 12 12 13 13 13 13 14 15 15 15 16 17 17 18 19 19 19 19 20 20 19 19 19 20 21 21 21 22 23 23 23
15 14 14 13 14 13 12 13 13 13 13 13 13 13 13 14 14 15 15 15 16 17 17 18 18 19 19 19 20 20 21 21 21 21 21 21 22 22 23 23 24 24 24
15 14 14 14 14 13 13 14 14 14 15 15 14 14 14 15 15 15 16 16 17 17 18 19 19 19 20 20 20 21 21 22 21 21 22 22 23 23 24 24 25 25 25
16 15 15 15 14 14 14 15 15 15 15 16 15 15 15 16 16 16 16 17 17 18 18 19 19 19 20 20 20 21 21 21 22 22 23 24 24 25 25 25 25 25 25
16 16 15 15 16 16 15 16 16 17 16 16 15 15 16 16 17 17 17 17 18 18 19 20 21 21 21 21 21 21 22 22 23 23 24 25 25 26 26 26 25 25 26
17 17 17 17 17 17 17 17 17 17 17 17 17 18 18 18 19 19 19 19 19 19 20 20 21 21 21 21 21 22 22 23 24 24 25 25 25 26 26 25 26 26 27
19 19 19 19 19 19 19 19 19 19 20 20 20 20 20 20 21 21 21 21 21 21 21 21 22 22 22 22 22 22 23 24 24 25 26 26 27 27 27 27 28 29 29
21 21 21 21 21 21 21 22 22 22 22 22 22 22 21 21 21 22 22 22 22 22 22 23 23 23 23 23 24 24 25 25 26 27 27 28 28 29 30 30 31 31 31
22 22 22 23 23 23 23 24 24 24 24 23 22 23 22 22 22 22 22 22 23 23 24 24 24 24 24 25 26 26 27 28 28 28 29 29 30 31 31 32 32 33 33
23 23 24 24 24 25 24 24 23 24 23 23 22 23 23 23 23 24 24 24 24 24 24 24 25 26 26 26 26 26 27 28 29 30 31 31 32 32 33 33 34 34 34
25 25 25 25 25 25 24 24 23 23 23 23 23 24 24 24 24 25 25 24 24 24 24 25 25 26 27 27 27 28 29 29 30 31 31 32 32 33 33 34 34 34 34
27 26 27 26 26 25 26 25 24 24 24 25 25 25 25 25 25 25 26 26 26 26 26 26 27 27 28 28 29 30 30 31 31 31 32 32 33 34 34 35 35 35 36
28 28 28 28 27 27 26 26 26 26 26 26 26 26 26 26 26 27 27 27 27 27 27 28 29 30 30 30 31 32 32 32 32 33 33 34 34 35 35 36 36 36 36
31 31 30 30 29 29 28 28 28 28 28 27 27 27 27 27 28 28 28 28 29 29 29 30 31 31 31 32 32 33 33 34 34 34 35 35 35 36 36 36 36 36 36
32 32 33 32 31 30 30 31 30 29 28 29 29 29 29 29 30 30 30 31 31 32 32 31 32 32 33 33 34 34 34 35 35 36 36 36 36 36 36 35 35 35 35
34 34 34 33 32 32 32 32 32 31 30 30 31 31 32 32 32 33 33 32 33 33 33 33 34 34 34 35 35 35 36 36 37 37 37 37 36 36 36 35 35 34 34
35 35 35 34 34 34 34 33 33 33 32 31 31 32 33 33 34 34 34 35 35 35 35 35 35 35 36 36 36 37 37 37 37 37 37 37 37 36 36 35 35 35 34
36 36 35 35 35 36 36 35 35 34 32 32 33 33 34 34 34 35 35 36 36 36 36 36 36 36 37 37 37 37 37 37 37 37 37 37 36 36 36 36 35 35 34
36 36 36 37 36 36 35 35 35 34 34 34 35 35 35 35 35 35 36 36 36 36 36 36 37 37 37 37 37 37 37 37 38 38 37 37 36 36 37 36 35 35 34
37 37 38 38 37 37 36 35 35 35 35 35 36 36 36 36 35 35 35 35 36 36 36 37 37 38 38 38 38 38 38 38 38 37 37 36 36 36 36 36 35 35 35
37 38 38 37 37 37 36 36 36 36 35 35 36 36 36 36 36 36 36 36 36 36 37 37 38 38 38 38 38 38 38 38 37 37 37 36 36 36 36 36 36 35 35
36 37 37 37 36 36 36 36 36 36 35 36 36 36 37 37 37 37 37 37 37 37 37 38 38 38 39 39 39 39 38 37 37 37 37 37 37 37 37 36 36 34 34
36 36 36 37 37 37 37 37 37 37 37 37 37 37 37 37 38 38 38 38 38 38 38 38 38 38 39 39 38 38 37 37 37 36 36 36 37 37 36 35 34 33 33
36 36 37 37 38 38 37 37 37 37 38 38 38 38 38 38 38 39 39 39 38 38 38 38 39 39 38 38 37 36 37 37 36 36 36 35 35 35 35 34 33 33 33
36 36 37 37 37 37 37 37 38 38 38 38 38 38 38 38 38 37 38 38 37 38 38 38 38 37 37 36 37 37 37 37 36 36 36 35 35 34 34 33 32 32 32
35 36 36 36 36 37 37 37 37 37 37 37 37 36 36 36 36 36 36 36 36 37 37 36 36 36 36 36 36 36 36 36 35 35 35 35 35 34 33 33 32 32 31

GEFSGL_500_meanwind_186.txt.gz
Wind_Speed
11 11 10 9 8 8 7 7 7 7 8 9 9 10 11 12 12 12 12 13 14 15 16 16 16 16 17 17 17 17 17 18 18 19 19 19 20 20 20 20 20 20 20
11 11 10 10 9 8 8 8 8 9 9 10 10 10 11 12 12 13 13 13 14 15 15 16 17 17 17 18 17 18 18 19 20 20 20 21 21 21 22 21 21 21 22
11 11 10 10 10 10 10 9 10 10 10 11 11 11 12 13 14 14 14 15 16 16 16 17 17 18 18 18 19 19 19 19 20 20 21 22 22 22 22 22 22 23 23
11 11 11 11 12 12 11 11 11 11 12 13 13 14 14 15 15 15 16 17 17 17 17 17 18 18 18 18 18 19 19 19 20 20 21 22 22 23 23 23 23 24 23
13 12 12 13 13 13 13 14 14 14 14 14 15 16 16 16 16 16 17 17 17 17 18 18 18 18 18 19 19 19 20 20 21 22 22 22 22 23 23 23 23 24 24
15 15 14 14 15 15 15 15 16 16 16 17 17 17 18 18 18 18 18 18 18 19 19 19 19 19 19 20 20 20 21 22 22 22 22 22 23 24 24 25 25 25 25
16 16 16 17 17 17 17 17 17 17 18 18 19 20 19 19 19 20 20 20 20 19 19 20 20 20 20 20 21 21 22 22 23 23 24 24 24 25 25 26 26 27 26
18 18 18 18 18 18 18 18 19 19 20 20 21 21 22 22 22 21 21 22 21 21 21 20 20 20 20 21 21 22 23 24 24 24 24 25 26 26 27 27 27 28 28
20 20 20 20 20 19 19 20 20 21 22 22 22 22 22 22 21 22 22 22 22 22 21 21 22 22 22 23 24 24 25 25 26 26 26 26 27 27 27 28 29 29 30
22 22 22 22 22 21 21 21 21 23 23 23 24 23 23 22 22 22 22 22 22 22 22 22 22 23 24 24 24 25 26 26 26 26 26 27 27 28 29 30 30 31 31
25 25 24 24 24 23 23 23 23 24 24 24 25 24 24 23 22 22 23 23 23 23 23 23 23 24 24 24 24 25 25 26 26 26 27 28 29 29 30 30 31 32 32
27 27 26 26 26 25 25 25 25 25 26 25 25 25 25 24 23 23 23 24 24 24 24 24 24 24 24 25 25 25 25 26 27 27 28 29 30 31 31 32 33 34 34
29 29 28 28 28 27 27 27 27 27 27 26 25 25 25 24 24 24 24 24 25 25 25 25 25 26 26 26 26 27 27 27 28 28 29 30 31 32 33 33 34 35 35
31 31 30 30 29 28 29 29 28 28 28 27 26 26 26 25 26 26 25 25 25 26 27 27 28 28 28 28 28 29 29 29 29 30 31 31 32 33 33 34 35 35 35
33 32 32 32 30 29 29 29 29 28 27 27 28 28 29 28 27 27 26 26 27 27 28 29 29 29 29 30 30 30 30 31 31 31 32 32 33 33 34 34 35 35 35
34 34 33 32 32 31 31 30 30 30 29 29 29 30 30 30 29 28 28 28 29 29 30 30 30 30 30 31 31 31 32 32 32 33 33 34 34 34 35 35 35 35 35
35 35 34 34 33 32 32 31 31 31 31 31 31 32 32 31 30 30 30 31 31 31 31 31 31 31 31 32 32 32 33 33 33 33 34 34 34 35 35 35 35 35 35
36 36 36 36 35 34 33 33 32 32 32 32 33 33 33 33 32 32 33 33 32 32 32 32 33 33 33 33 33 33 33 34 33 33 34 34 35 35 35 35 36 35 35
36 36 36 36 36 35 34 34 34 34 33 33 34 34 34 33 33 34 34 34 34 34 34 34 34 34 34 34 34 34 34 34 34 34 35 35 36 36 36 36 36 36 35
36 36 36 36 36 36 36 35 35 35 35 35 34 34 35 34 35 35 35 35 35 35 35 35 35 35 35 35 34 35 35 35 35 35 35 36 37 37 36 36 36 36 36
36 35 36 36 35 34 35 36 35 35 35 36 36 35 35 35 36 36 36 35 35 35 35 35 36 36 36 36 35 35 35 36 36 37 37 37 37 37 37 36 36 36 36
34 34 33 33 33 33 33 35 35 34 33 34 34 35 35 35 36 36 35 35 35 36 36 36 36 36 36 36 36 36 36 36 36 37 37 37 37 36 36 36 36 35 35
34 34 33 33 33 33 35 35 35 35 34 33 33 33 34 35 35 35 35 35 36 36 36 35 35 35 36 36 36 36 36 36 36 36 37 36 36 36 35 35 35 35 34
33 33 33 33 33 34 33 33 34 33 32 32 33 33 34 34 34 35 35 35 36 36 35 35 35 35 35 35 36 36 36 36 36 36 36 36 35 35 35 35 35 35 34
32 33 33 33 33 33 34 34 34 34 33 33 33 33 33 33 34 34 34 34 34 34 34 34 34 35 35 34 34 35 35 35 36 36 35 35 35 35 35 35 35 35 34
31 32 32 32 33 34 34 34 34 34 33 33 33 33 33 33 33 33 32 32 32 33 33 33 34 34 35 35 35 34 35 35 35 35 35 35 35 35 36 35 35 34 34

GEFSGL_500_meanwind_192.txt.gz
Wind_Speed
12 12 11 10 9 8 8 8 9 10 10 11 11 12 12 12 13 13 14 15 15 15 15 16 17 17 18 19 20 20 21 21 21 22 22 22 23 23 23 23 23 22 23
12 12 11 10 9 9 9 9 10 10 11 12 13 14 14 14 14 15 15 16 16 16 17 17 18 18 19 20 20 21 22 23 23 23 23 24 24 24 24 24 24 24 24
13 13 12 11 11 11 11 11 12 12 12 13 14 15 15 16 16 16 17 17 18 18 18 18 19 20 20 21 21 22 23 23 24 24 24 25 24 24 25 25 25 25 25
14 13 13 13 13 13 13 14 14 14 14 14 14 15 17 18 18 18 19 20 20 20 20 20 21 21 21 22 22 22 23 24 25 25 24 24 24 25 25 25 26 26 26
15 14 14 14 15 15 15 15 15 16 16 16 16 17 18 19 20 21 21 21 22 22 22 22 22 22 22 23 23 23 23 23 24 24 24 24 25 25 26 26 26 26 27
16 16 16 17 18 18 17 17 18 18 18 18 18 19 19 20 20 21 22 23 23 24 23 22 22 22 22 23 23 23 23 24 24 24 25 25 26 26 27 27 27 27 27
19 19 19 19 20 20 20 20 20 19 19 19 19 20 21 22 22 23 23 23 23 23 23 23 22 22 23 23 24 24 24 25 26 26 26 26 27 27 28 28 28 28 28
21 22 21 22 22 22 23 23 22 20 20 20 21 22 22 23 23 24 24 24 23 23 23 23 23 24 24 24 25 25 25 26 26 27 27 27 28 29 28 28 29 29 29
23 23 23 24 24 24 24 24 23 21 21 22 23 23 24 24 24 24 25 24 24 24 24 24 24 25 25 26 26 27 27 27 27 28 29 28 29 29 29 30 30 30 30
24 24 24 24 24 24 24 23 23 23 23 24 25 25 25 25 25 25 26 25 25 24 24 24 25 26 26 26 27 27 27 27 28 28 28 28 29 29 29 30 30 30 30
26 26 25 25 24 24 24 24 24 25 25 25 26 27 26 27 27 27 27 26 25 25 25 25 25 26 26 27 27 27 27 27 28 29 29 30 30 30 30 30 30 31 32
29 28 27 26 26 25 25 25 26 26 27 27 27 27 28 27 27 27 27 26 25 25 25 25 26 27 27 28 28 28 28 28 28 28 29 29 30 30 30 30 31 32 33
31 30 29 28 28 28 27 27 27 27 28 28 28 29 29 28 28 28 27 26 25 25 26 26 27 27 28 28 29 29 29 29 29 30 30 30 31 31 31 31 32 33 34
32 32 32 30 29 29 28 28 28 29 29 29 29 29 30 30 29 29 28 26 26 27 28 28 28 29 29 29 29 29 30 30 31 31 31 31 32 32 33 34 34 35 35
33 33 32 31 29 29 29 29 30 30 30 30 30 30 30 30 30 30 28 28 28 29 29 30 30 30 30 30 31 31 31 31 32 32 32 33 34 34 35 35 35 36 36
33 33 32 30 29 30 30 31 31 32 32 32 32 32 32 31 31 31 30 30 31 31 31 31 31 31 32 32 33 33 33 33 33 33 34 34 35 36 36 37 37 37 38
34 34 33 32 31 31 32 32 33 33 34 34 34 34 32 31 32 32 32 32 32 33 33 33 33 33 33 34 34 34 34 34 35 35 35 36 36 37 37 37 37 38 38
34 34 34 33 33 33 33 33 34 35 35 35 36 36 36 35 34 34 33 34 34 35 34 34 34 34 34 34 35 35 36 36 36 37 37 37 37 37 37 37 37 37 37
34 34 34 34 34 33 33 34 34 34 35 35 35 36 36 36 35 35 34 35 35 36 36 35 35 35 35 36 36 37 38 38 38 38 38 38 37 37 37 37 37 37 37
34 34 34 34 34 34 34 34 34 34 35 35 35 35 36 36 35 35 35 35 35 36 36 36 36 36 36 37 38 38 38 38 39 39 38 38 38 38 37 37 37 37 37
36 36 35 35 34 34 35 34 34 34 34 34 34 34 35 36 36 36 36 35 36 36 37 38 38 37 38 38 39 39 38 38 38 38 38 38 38 37 37 36 36 36 36
34 35 35 35 35 35 35 34 34 34 34 34 33 33 34 36 36 37 37 36 37 37 38 38 38 38 39 39 39 38 37 37 37 38 38 37 37 37 37 36 36 36 36
33 33 34 34 34 34 33 33 33 33 34 34 33 34 34 34 34 35 36 36 36 36 37 37 37 38 39 39 38 37 37 37 38 38 37 37 37 37 36 36 35 36 36
32 33 33 33 33 33 33 33 33 33 33 33 33 33 34 34 34 35 35 35 35 36 36 37 37 38 38 37 36 36 37 37 37 37 37 37 36 36 36 36 36 36 36
32 32 32 32 32 33 33 33 33 33 33 33 33 33 34 34 34 34 35 36 36 36 36 36 36 36 36 36 36 36 37 37 37 37 37 36 36 36 36 37 37 36 36
30 30 31 31 31 32 32 32 32 32 33 33 33 33 33 34 34 34 35 35 35 35 34 34 35 35 35 35 35 35 35 35 35 35 35 35 35 35 36 36 36 36 36

GEFSGL_500_meanwind_198.txt.gz
Wind_Speed
13 13 12 11 10 10 10 10 10 10 10 10 11 11 11 12 13 14 14 14 15 15 16 16 17 18 18 18 19 19 19 19 20 20 21 22 22 23 23 24 24 24 25
14 13 12 11 11 10 11 11 11 11 11 12 12 13 12 13 14 15 16 16 17 17 18 18 18 18 19 20 20 20 21 21 22 22 23 23 23 24 24 25 25 26 26
14 14 13 12 12 12 12 12 12 12 12 13 13 14 15 15 16 16 17 18 18 19 19 19 20 21 21 22 22 22 22 23 23 24 24 25 25 25 25 26 27 27 28
16 16 15 14 13 13 13 14 14 14 15 15 15 16 17 18 18 18 18 19 20 20 21 21 22 22 23 23 24 24 24 24 25 25 25 26 26 26 27 27 27 27 27
18 18 17 16 16 15 15 15 16 16 17 17 17 18 18 18 19 19 20 20 21 21 22 22 23 24 24 24 25 25 24 25 25 26 26 26 26 26 27 27 27 27 28
19 19 19 18 18 18 17 18 18 18 18 18 19 19 19 19 20 20 21 22 22 22 23 23 23 24 24 24 24 25 26 25 25 26 26 26 27 27 27 28 28 28 29
20 20 20 19 20 20 20 20 20 20 19 20 20 20 21 21 21 21 22 23 22 23 24 24 24 25 24 24 25 25 25 25 25 26 27 27 27 28 28 28 29 29 29
22 22 22 21 21 22 22 22 23 23 22 21 21 21 22 22 23 23 24 24 24 24 24 25 26 26 25 26 26 26 26 26 27 26 27 28 28 28 28 28 28 29 29
24 24 25 25 24 25 24 23 24 24 23 23 23 24 23 24 24 24 24 24 25 25 25 26 27 27 27 27 27 27 27 27 27 27 27 28 28 28 28 29 30 30 30
28 28 26 26 27 26 25 25 25 25 26 25 25 25 25 25 25 25 25 25 26 26 27 27 28 28 28 28 28 28 28 27 27 27 28 28 29 29 30 30 30 30 30
30 30 29 28 28 28 28 28 28 27 27 27 27 27 26 27 27 27 27 27 27 27 28 28 28 28 28 28 28 28 28 27 27 27 28 29 29 30 30 30 31 30 30
31 31 30 30 31 31 31 30 29 29 29 28 29 29 28 28 28 28 27 28 29 29 29 28 28 28 28 28 29 28 28 28 27 28 28 29 29 29 30 30 30 31 31
33 33 33 33 32 32 32 31 30 30 30 31 31 30 30 29 29 29 29 29 30 29 29 28 29 29 29 29 28 27 28 28 28 29 29 30 30 30 30 30 30 31 31
35 36 34 34 33 32 33 32 31 31 31 31 31 31 30 30 30 30 30 30 29 29 29 29 30 30 30 29 29 29 29 30 30 30 30 31 31 31 31 31 32 32 33
37 37 36 36 35 35 34 33 33 33 33 33 33 32 31 31 31 31 31 31 31 31 30 30 30 30 31 31 31 31 31 32 32 32 32 32 32 32 33 33 34 34 35
38 37 37 37 36 36 36 35 35 35 35 34 34 33 33 33 33 32 32 32 32 32 32 31 31 31 31 32 32 32 32 32 33 33 33 33 34 34 35 35 35 36 36
39 39 38 38 37 37 37 36 35 35 35 34 34 34 34 34 34 33 34 34 34 33 33 33 33 33 33 33 32 32 33 34 34 35 35 36 36 36 36 37 37 37 37
39 39 37 37 36 36 36 36 35 35 35 35 35 35 34 34 34 34 34 34 34 34 35 35 35 35 34 34 34 34 34 35 36 37 37 38 38 38 38 38 38 38 37
39 39 38 36 35 35 35 35 34 34 35 36 36 36 35 35 35 35 35 35 35 35 35 35 36 36 36 36 36 36 36 37 38 38 39 39 39 39 38 38 38 38 37
37 37 36 35 35 35 34 35 35 35 36 36 36 36 36 35 35 35 36 36 36 36 36 36 36 37 37 37 37 38 38 39 39 39 39 39 39 39 38 38 38 37 37
36 35 35 36 36 35 35 35 35 35 36 37 36 36 35 36 36 36 37 37 38 37 37 38 38 38 38 38 39 39 39 39 39 39 38 38 38 38 37 37 37 37 37
35 34 35 35 34 35 34 34 34 35 35 36 35 35 35 36 37 37 38 38 38 38 38 38 37 37 37 38 39 39 39 38 38 38 38 38 38 37 37 37 37 36 36
32 33 34 33 33 33 33 33 33 33 33 34 35 35 35 35 36 36 37 37 36 36 36 36 36 37 37 38 38 38 38 37 37 38 38 38 37 37 37 36 36 36 35
31 31 31 31 31 32 32 33 33 33 33 33 34 33 33 34 34 35 35 35 36 35 35 35 36 36 36 37 37 37 37 37 37 37 36 36 36 36 36 35 35 35 35
29 29 29 29 30 31 31 32 33 33 33 33 33 33 33 34 34 34 34 34 34 34 34 35 34 34 35 35 35 35 35 35 34 35 35 35 35 34 34 34 34 34 35
28 28 28 28 29 29 29 30 31 32 32 32 32 32 32 32 32 31 31 32 32 32 33 33 33 33 33 33 33 33 33 33 33 33 33 33 34 33 33 33 33 34 34

GEFSGL_500_meanwind_204.txt.gz
Wind_Speed
15 15 14 14 14 13 13 12 13 13 13 12 12 12 12 12 12 13 13 13 13 14 15 15 16 16 16 17 17 18 18 19 19 20 21 22 22 22 23 23 24 24 23
16 16 16 15 15 14 14 14 14 14 14 14 13 13 13 13 14 14 15 15 15 15 16 16 16 17 17 17 18 19 20 20 21 22 23 24 24 24 25 25 24 25 25
17 18 18 17 16 16 16 15 16 16 16 16 15 15 15 15 15 15 16 16 17 17 18 18 18 18 19 20 20 21 22 22 23 23 24 25 25 26 26 26 26 25 26
19 19 19 18 17 17 17 18 18 18 18 18 17 17 17 17 17 17 18 18 18 18 19 19 19 20 20 21 22 22 23 24 24 25 25 26 26 27 27 26 26 27 27
21 20 20 20 19 20 20 20 19 20 20 20 19 19 19 19 19 19 19 19 20 20 20 21 21 21 21 23 23 24 25 25 26 26 26 26 26 27 26 27 28 28 28
22 21 21 22 22 22 22 22 22 21 21 21 22 22 22 21 21 22 22 22 22 23 23 22 23 23 23 24 25 26 26 26 26 27 27 27 27 27 27 27 28 28 28
24 23 24 23 23 23 23 23 23 22 22 23 24 24 24 24 24 24 24 24 24 25 25 26 26 25 25 25 26 26 27 27 27 27 27 27 27 27 28 28 28 28 28
25 25 25 26 25 26 25 25 25 25 25 25 25 25 25 26 26 26 26 26 26 27 28 28 28 28 28 27 28 28 28 28 28 28 28 28 28 29 29 29 29 29 28
27 27 26 27 27 27 27 27 27 27 27 28 27 27 27 27 27 27 27 28 28 29 29 28 29 28 28 28 29 29 30 29 28 29 29 29 29 29 29 29 29 28 28
30 29 29 28 28 29 29 29 29 30 30 30 30 29 28 28 28 28 28 29 29 30 29 28 29 29 30 30 30 30 30 29 29 29 29 29 28 29 29 29 29 29 29
31 31 31 31 31 31 30 30 30 31 31 30 30 29 29 29 29 29 29 30 30 30 31 30 30 30 31 31 31 31 30 30 30 29 29 29 28 28 29 30 30 30 30
32 32 32 33 33 33 32 32 32 32 32 31 31 30 30 30 30 29 30 30 31 32 32 33 32 31 31 31 31 31 31 30 30 30 30 30 30 30 30 31 31 31 30
33 33 33 34 34 34 34 34 34 34 33 33 33 31 30 30 30 31 32 32 32 33 33 33 33 33 32 32 32 32 32 32 32 32 32 31 32 32 32 32 31 31 31
35 34 34 35 35 35 35 35 35 35 35 35 34 32 31 31 32 32 32 33 33 33 33 33 33 34 33 33 33 33 34 34 34 33 33 33 33 33 33 33 33 33 33
37 36 36 37 37 37 37 37 37 37 37 37 36 35 35 34 33 34 34 34 35 34 34 34 34 35 35 35 35 35 35 35 35 35 34 35 35 35 34 35 35 35 35
37 37 38 38 38 38 38 38 38 38 38 38 38 37 37 36 36 36 37 37 36 36 36 36 36 36 36 36 36 36 36 36 36 36 36 36 36 36 36 36 37 36 36
38 38 38 38 39 39 38 38 39 39 39 39 39 39 38 38 38 38 38 38 38 37 37 37 37 36 36 37 37 37 36 36 37 37 38 38 37 37 37 37 38 38 37
38 39 39 39 39 40 39 39 40 41 40 40 39 39 39 39 39 39 39 39 38 37 37 37 37 37 37 38 37 37 37 37 38 38 38 38 38 39 39 38 38 38 37
38 39 40 40 40 41 41 40 41 41 40 39 39 38 39 39 39 39 39 39 39 39 38 38 38 38 38 38 38 38 38 39 39 38 38 38 39 39 38 38 38 38 38
38 38 38 39 39 40 40 41 41 41 40 39 38 38 38 39 39 39 40 40 39 39 38 39 39 39 38 38 38 38 38 38 37 37 38 38 37 38 38 38 37 37 37
37 37 38 38 38 39 40 40 40 39 38 37 38 38 38 38 38 39 38 38 38 38 39 39 39 39 39 38 38 37 37 36 36 37 37 37 37 37 37 37 36 36 36
35 35 35 36 36 36 37 36 36 37 36 35 35 35 36 36 36 36 36 36 37 38 39 39 38 38 38 37 37 36 36 36 36 37 37 37 37 36 36 36 36 36 35
32 33 34 34 35 35 35 35 34 34 34 32 32 32 33 33 33 34 34 34 35 35 36 37 36 36 35 36 36 37 37 37 37 37 36 36 36 36 35 35 36 35 35
32 33 34 34 34 33 33 33 33 33 33 31 30 30 30 31 32 32 32 32 33 33 34 33 33 33 34 34 34 35 35 35 35 34 34 34 35 35 35 34 34 34 34
30 30 31 32 31 31 32 32 31 30 30 30 30 29 29 29 29 30 31 31 32 32 31 32 32 32 32 32 33 34 34 34 33 33 33 33 33 34 34 34 34 33 33
28 29 29 29 29 29 29 28 28 29 29 29 30 30 29 29 30 30 30 31 31 32 31 32 32 31 31 32 32 32 32 32 33 33 32 32 33 33 33 33 33 32 32

GEFSGL_500_meanwind_210.txt.gz
Wind_Speed
12 12 11 11 11 11 11 10 10 10 10 9 9 9 9 10 10 10 10 10 10 11 11 11 12 12 13 13 14 14 15 16 16 17 18 19 20 21 21 22 22 23 23
13 13 13 14 13 13 13 13 13 12 12 11 12 12 11 11 11 11 11 12 12 12 12 13 13 14 15 15 15 16 17 18 18 19 20 21 22 23 23 23 24 24 24
15 14 15 15 15 16 16 16 15 14 13 13 13 14 13 13 13 13 13 13 13 13 13 14 15 16 16 17 17 19 19 20 20 21 22 23 23 24 24 24 24 25 25
16 17 17 17 17 17 17 16 17 16 16 15 15 15 15 15 15 15 15 15 14 15 15 16 16 17 18 19 19 20 21 22 22 22 23 24 24 25 25 25 26 26 27
19 19 19 19 19 19 19 18 18 18 18 18 17 16 16 16 16 16 16 16 16 16 17 17 19 19 20 20 21 22 22 22 22 23 24 25 25 25 26 26 26 26 27
21 21 20 21 20 21 20 20 19 19 19 18 19 18 17 17 17 18 18 18 18 19 19 20 21 21 22 22 23 23 23 23 24 24 25 25 25 26 26 26 26 26 27
23 23 23 23 22 22 22 22 21 21 20 19 19 19 19 19 19 20 21 21 21 21 22 22 23 24 24 25 25 25 25 25 25 25 26 26 26 25 26 26 26 26 27
25 25 25 25 25 24 24 23 22 21 21 21 21 22 22 21 21 22 22 23 23 23 24 24 24 25 26 26 26 26 26 26 26 26 27 27 27 27 26 26 26 26 27
26 26 26 27 26 25 24 25 24 23 23 23 24 24 24 24 24 24 25 25 26 25 26 26 26 26 26 27 26 26 26 26 26 26 27 27 27 28 28 28 28 28 28
28 28 28 28 27 27 26 26 25 25 25 25 26 26 26 25 26 26 26 27 26 26 26 26 26 26 27 27 26 27 27 27 27 27 28 28 28 28 28 29 29 29 29
29 29 29 28 28 27 27 27 27 27 26 26 26 27 27 27 27 28 28 27 27 28 28 28 28 28 28 27 27 27 27 28 28 28 29 29 28 29 29 29 29 30 30
31 30 30 29 29 29 29 29 29 29 28 28 29 29 28 28 28 29 29 29 29 29 28 28 29 29 29 29 29 29 29 29 29 30 30 30 30 30 31 30 30 30 30
31 31 30 30 31 31 32 32 31 31 31 31 31 31 31 31 31 31 31 31 31 31 30 29 30 30 30 29 29 30 30 30 31 31 31 31 32 32 32 31 31 31 31
33 32 32 32 33 34 34 33 34 34 35 35 34 34 34 33 33 32 32 32 32 32 31 31 31 31 31 31 31 32 32 32 32 32 33 33 33 33 33 32 31 32 32
35 34 34 34 35 35 36 35 35 35 36 36 35 35 36 35 33 33 33 32 32 32 32 32 33 33 33 33 33 33 33 33 33 34 34 34 34 34 33 33 33 33 34
36 36 36 37 38 38 38 37 37 37 37 36 36 36 36 36 35 35 34 33 33 34 34 35 35 35 35 35 35 35 34 34 34 35 35 35 35 34 34 34 35 35 36
38 37 37 38 38 37 37 38 38 38 37 37 36 37 37 37 36 36 36 35 35 36 35 35 36 35 35 36 35 35 35 35 35 35 35 35 36 36 35 35 36 36 36
37 37 37 37 37 37 37 37 37 37 37 37 36 36 36 36 36 37 36 36 36 36 36 36 36 35 34 34 35 34 35 35 36 36 36 36 36 36 36 36 36 37 37
36 37 37 37 36 36 36 36 36 36 36 36 36 36 36 36 36 37 37 37 37 37 36 36 35 34 33 34 34 34 34 35 36 36 36 36 36 36 36 36 36 37 37
35 35 35 34 34 35 36 36 36 35 35 35 35 35 36 35 35 36 36 36 36 36 35 34 34 33 33 33 33 34 35 35 36 37 36 36 36 36 36 36 36 36 36
32 32 32 33 34 33 34 34 33 33 33 33 33 33 33 33 33 34 34 34 34 33 32 32 31 31 32 33 33 34 35 35 36 36 36 36 35 34 34 35 35 34 34
31 31 31 31 31 30 30 30 30 29 30 30 31 31 31 31 31 32 30 30 29 29 28 29 30 30 31 31 32 33 34 35 35 35 35 34 34 33 34 34 34 33 33
29 29 29 28 28 28 28 28 28 28 28 30 30 30 30 29 29 28 27 27 27 26 26 27 28 29 30 31 32 33 33 33 33 33 33 32 33 33 33 33 33 32 32
27 27 26 26 26 26 27 28 27 27 27 28 28 28 28 27 26 26 26 26 26 26 27 28 29 29 30 31 31 32 31 32 32 31 31 31 32 32 31 31 31 31 31
24 25 26 26 26 26 27 27 27 27 27 27 27 27 26 25 25 25 25 26 26 26 27 29 29 30 30 29 30 30 30 30 30 30 30 30 30 30 30 30 30 30 30
22 23 24 25 25 25 25 25 25 25 25 25 25 24 24 24 25 25 26 26 26 26 27 27 28 28 28 29 29 29 29 29 30 30 30 30 30 29 29 29 29 30 30

GEFSGL_500_meanwind_216.txt.gz
Wind_Speed
14 14 15 15 14 13 13 13 14 14 14 14 13 13 13 13 12 12 13 13 13 13 13 13 14 15 15 15 16 17 17 17 16 17 18 19 20 21 22 22 23 23 24
15 16 16 16 16 15 15 16 16 16 17 17 16 16 15 15 15 15 14 14 15 15 15 15 16 17 17 18 18 19 19 19 19 19 20 21 21 23 23 23 24 25 25
17 18 18 17 17 17 17 18 19 19 20 20 20 19 18 18 17 17 17 17 17 17 18 18 19 19 19 20 20 20 21 21 22 22 22 23 24 24 25 25 26 26 26
19 19 20 20 19 19 20 20 21 21 21 21 21 21 21 20 20 20 19 19 20 20 20 20 21 21 20 21 21 22 22 23 23 24 24 24 25 26 26 26 26 26 26
20 20 21 21 22 22 23 23 23 22 22 22 21 22 22 21 21 21 21 21 21 22 22 23 23 23 22 22 23 23 24 24 24 25 25 25 25 26 26 27 27 27 27
21 22 23 23 24 24 24 24 23 24 23 23 22 21 22 22 22 23 23 23 23 23 24 25 25 24 24 24 25 25 25 25 25 26 26 26 26 27 27 27 27 27 27
24 24 24 24 24 24 25 24 24 25 25 25 25 24 24 24 24 24 24 24 24 24 24 25 25 25 26 26 27 27 28 28 27 27 27 27 27 28 28 28 28 28 29
26 26 25 25 25 26 26 26 26 26 26 26 26 26 27 26 26 26 25 25 24 25 25 24 26 27 27 28 28 29 29 28 28 29 29 30 30 30 30 30 31 31 30
27 27 27 27 27 26 27 27 27 27 26 26 26 27 27 27 27 27 27 26 26 27 27 27 27 28 29 29 29 30 30 30 30 30 31 31 30 30 30 30 31 31 31
28 29 29 29 28 28 28 28 28 28 27 26 26 26 27 27 27 28 28 28 28 28 29 29 29 30 30 31 31 31 31 31 32 32 31 31 31 31 31 31 31 31 31
29 29 30 30 30 30 29 29 29 30 29 28 28 28 28 29 30 30 30 30 30 29 29 30 30 30 30 31 32 32 31 32 32 32 32 32 32 32 32 32 31 31 31
32 32 32 32 32 32 32 31 31 31 31 31 31 31 31 31 32 32 32 32 32 32 32 32 33 33 32 32 32 32 33 33 33 32 33 33 33 33 33 33 33 32 32
34 34 34 34 34 34 33 33 32 32 32 32 32 32 33 34 34 34 33 32 32 32 32 32 33 34 34 34 34 34 34 34 34 34 33 33 34 34 34 34 34 33 33
35 35 36 36 36 36 35 35 35 34 33 33 33 34 34 35 34 34 34 32 33 34 34 34 34 34 35 35 35 35 35 35 34 35 35 35 35 35 35 35 34 34 35
36 37 37 37 37 37 37 37 37 36 35 35 34 34 35 35 35 36 35 34 34 35 36 36 36 36 36 36 36 35 36 35 35 35 36 35 35 36 36 35 35 35 35
37 37 38 37 37 37 36 36 35 36 36 36 35 35 35 35 34 35 35 35 36 36 36 37 37 37 37 37 36 36 36 36 36 36 37 37 36 36 37 37 36 36 36
37 37 37 37 37 37 36 35 35 35 35 35 35 36 35 34 34 34 34 35 35 36 37 38 38 38 37 36 36 37 36 36 37 37 38 37 37 37 37 37 36 36 36
37 38 37 37 38 38 37 36 35 35 35 35 35 35 35 35 35 35 34 35 35 36 37 37 37 38 38 37 37 37 37 37 37 37 37 37 36 37 37 37 37 37 37
37 37 36 36 36 36 35 34 34 34 34 34 34 34 33 33 33 34 34 35 35 36 37 36 36 37 38 38 38 37 37 37 36 36 36 36 36 36 37 37 37 37 37
35 34 34 34 34 34 33 33 33 33 32 32 32 31 31 31 32 32 32 33 33 33 34 35 35 35 35 36 36 35 35 35 35 36 36 36 36 36 36 36 37 37 37
32 32 32 31 31 31 30 31 31 31 30 30 30 29 29 29 29 29 29 29 30 31 32 32 33 33 33 33 34 34 34 34 34 34 34 34 35 35 35 36 36 36 36
29 29 29 29 29 29 29 29 29 29 29 28 28 27 27 27 27 28 27 27 28 29 30 30 30 30 30 31 31 32 32 33 33 33 33 34 34 34 34 34 34 35 34
28 27 26 26 26 27 27 28 28 28 27 27 27 27 27 26 26 27 27 28 28 28 28 28 28 28 29 29 29 30 30 31 31 31 32 32 32 32 32 32 32 33 33
26 25 24 24 24 25 25 26 26 26 27 27 26 26 26 25 25 26 26 27 27 27 27 27 27 28 28 28 27 27 28 28 29 30 30 30 31 31 31 31 31 31 32
23 23 23 23 23 24 24 24 24 25 25 25 25 24 24 24 25 25 25 26 26 26 27 27 27 27 26 26 26 26 26 27 28 29 29 29 30 30 31 31 31 32 32
21 22 21 21 21 21 21 22 22 22 22 22 23 23 24 25 25 25 25 25 25 26 26 26 26 26 25 25 25 25 26 27 28 28 28 29 29 30 30 30 30 31 31

GEFSGL_500_meanwind_222.txt.gz
Wind_Speed
16 16 16 17 17 16 15 15 14 14 15 14 14 15 14 15 16 17 17 17 17 17 17 17 17 17 17 17 17 17 17 17 17 17 18 18 19 20 20 20 21 21 22
18 18 19 19 19 19 17 16 16 17 17 16 16 16 17 17 18 18 18 18 18 18 18 19 19 19 20 19 19 20 20 19 19 18 19 19 20 21 21 22 22 22 23
20 20 20 21 21 20 19 19 19 19 19 19 19 19 19 19 19 19 19 20 20 20 20 20 21 21 22 22 22 22 22 22 21 21 21 22 22 22 23 23 24 24 25
21 21 22 22 22 21 21 21 21 22 22 21 22 22 21 21 21 20 21 22 22 22 22 22 22 22 22 23 23 23 23 24 24 24 24 24 24 25 25 26 26 26 26
24 23 24 24 23 23 23 23 23 24 24 24 24 23 23 23 23 22 23 24 24 24 24 23 23 23 24 24 24 24 25 25 25 25 26 26 26 26 27 27 27 27 27
25 25 25 25 25 25 25 25 25 26 26 25 25 24 24 24 24 24 24 25 25 26 26 25 26 26 26 26 26 26 26 26 26 27 27 28 28 28 28 28 28 28 28
27 26 27 27 27 28 27 27 27 27 26 26 25 25 25 24 25 25 25 26 26 26 26 26 27 27 27 27 27 27 27 28 28 29 29 29 29 30 30 30 30 30 29
29 29 29 29 29 29 29 28 27 27 27 27 26 27 26 26 26 27 27 27 26 26 27 27 28 28 28 28 29 29 29 29 29 30 30 30 31 31 31 31 31 31 31
31 31 31 31 31 31 31 30 29 29 28 28 28 28 27 27 27 28 28 29 28 28 28 28 29 29 30 30 31 31 31 31 31 31 30 30 30 31 31 32 32 32 31
32 32 32 32 32 32 32 31 30 30 30 30 29 29 29 29 29 30 30 31 30 29 29 29 30 31 32 32 33 33 33 32 33 32 32 31 31 32 32 32 32 32 32
32 33 34 34 34 33 33 32 33 32 32 31 31 30 30 31 32 32 32 32 31 31 32 32 32 33 33 34 34 34 34 35 35 34 33 33 33 33 32 32 32 32 33
34 34 35 34 34 33 34 33 34 33 33 33 32 32 31 32 33 34 34 33 34 34 34 35 35 35 36 36 35 35 35 36 36 35 34 34 34 33 33 33 33 34 33
35 34 34 34 34 34 34 33 33 34 34 34 34 34 34 34 35 35 35 35 35 36 36 37 37 36 36 35 35 35 36 36 36 36 36 35 35 35 35 35 35 35 35
36 36 35 35 35 35 35 34 34 35 35 35 35 35 35 35 36 36 35 36 36 36 36 36 36 36 36 37 37 37 37 37 37 37 37 36 36 36 35 35 36 36 36
37 36 36 36 35 36 36 35 35 35 35 36 36 36 36 36 36 36 36 36 36 36 36 37 37 37 37 38 38 38 38 38 37 37 37 37 37 37 37 37 37 37 36
38 38 37 35 36 36 36 36 36 36 37 37 38 38 37 37 37 36 36 36 37 36 36 36 37 37 37 37 38 38 37 37 37 38 38 38 38 37 37 37 37 36 36
38 38 38 37 38 37 36 37 37 38 38 38 38 37 37 36 36 36 35 35 35 35 36 36 37 37 37 37 37 37 38 38 38 39 39 39 39 38 36 36 36 36 36
38 38 38 39 39 39 38 37 37 37 37 37 37 36 36 35 35 34 33 33 33 34 35 35 35 35 36 36 36 37 38 38 38 39 38 38 38 37 37 37 37 36 36
36 36 36 37 37 36 36 35 35 36 35 34 34 33 33 34 34 34 33 32 32 33 34 34 33 34 35 34 34 35 36 36 37 37 37 37 37 37 37 37 36 36 36
35 34 35 35 35 35 34 34 34 33 32 31 31 31 31 31 31 31 31 31 31 31 31 31 31 32 32 32 33 33 34 34 34 35 36 36 36 37 37 36 35 35 36
33 32 32 33 33 32 31 32 32 31 31 30 29 29 29 29 29 29 28 29 29 28 29 29 30 30 30 30 31 31 32 33 33 34 35 35 35 34 34 34 34 34 35
31 31 30 30 29 29 29 29 28 28 28 28 27 28 28 27 27 27 27 27 27 27 27 28 29 29 29 30 31 31 31 31 32 33 33 32 32 32 32 32 32 33 33
29 28 28 28 28 28 27 26 26 26 26 25 25 25 26 26 26 27 27 27 27 27 27 27 28 28 28 29 29 29 29 30 30 30 30 30 30 30 30 30 30 30 30
27 27 27 26 26 25 26 26 25 25 24 24 25 25 25 25 25 26 26 26 27 28 28 27 27 27 27 27 27 27 28 28 29 28 28 28 28 28 29 29 29 29 28
26 26 26 25 25 25 25 25 25 25 25 25 24 23 23 24 25 25 26 26 27 27 26 26 26 26 26 26 26 27 27 27 26 26 26 26 27 27 28 28 28 28 28
22 23 23 22 22 22 22 22 22 22 23 23 23 23 23 23 24 24 24 25 25 25 25 26 26 26 26 26 27 27 28 27 27 26 26 26 26 27 27 28 28 28 28

GEFSGL_500_meanwind_228.txt.gz
Wind_Speed
18 17 16 16 15 16 17 17 17 17 17 17 16 16 16 16 16 16 16 16 16 16 16 16 17 17 17 17 17 17 18 18 18 18 18 17 18 18 18 18 19 20 20
20 19 19 17 17 18 19 19 19 19 18 18 19 19 18 18 18 18 18 18 18 18 18 18 18 19 18 19 19 20 20 20 20 20 20 20 19 20 20 20 21 22 22
20 20 20 20 19 20 20 21 21 21 20 21 21 20 20 20 20 20 20 20 20 20 20 20 20 20 19 20 21 21 22 22 22 22 22 22 22 22 22 22 23 23 24
21 21 22 21 22 22 22 23 23 22 22 23 22 22 22 22 21 22 22 22 22 22 22 22 23 22 22 22 22 23 23 23 24 24 23 24 24 24 25 25 25 25 26
23 23 24 24 24 24 24 24 25 24 24 24 24 24 24 24 24 24 24 24 24 24 24 24 24 25 24 24 24 24 25 25 25 25 26 26 26 26 26 27 27 28 28
25 25 25 26 26 26 26 26 26 26 26 26 25 25 25 25 25 25 25 25 26 25 25 26 26 26 27 26 26 26 27 27 28 28 28 28 27 27 27 28 29 29 29
28 28 28 28 28 28 28 28 27 27 27 26 26 27 27 27 27 27 27 27 27 28 27 27 27 28 28 28 28 28 29 29 29 29 29 29 29 30 30 30 31 31 31
30 30 29 30 30 29 30 29 28 28 28 28 28 29 28 28 29 28 28 28 28 28 28 28 29 29 29 30 31 31 31 31 31 31 31 31 32 32 33 32 32 32 32
31 31 31 32 32 32 31 30 30 30 30 30 30 30 29 28 28 29 29 30 29 29 29 29 30 31 31 32 32 32 32 32 32 32 33 33 33 33 34 34 34 34 34
33 33 33 33 34 34 32 32 32 32 32 32 32 31 30 29 29 30 31 31 31 31 31 31 31 31 32 32 33 34 34 34 34 34 35 35 35 35 35 35 34 34 34
34 34 34 34 34 33 32 32 33 34 34 34 34 32 32 32 31 32 32 32 32 32 32 32 33 33 34 34 35 35 36 36 36 36 37 37 37 37 36 36 35 35 35
35 35 35 35 34 34 34 33 34 34 35 35 34 33 33 33 33 33 34 35 34 34 34 34 34 35 35 36 37 37 37 38 38 38 38 38 38 38 38 37 37 37 36
36 36 36 36 35 34 35 35 35 35 35 35 36 35 34 34 35 35 36 36 36 36 36 36 36 36 37 38 38 38 39 39 39 39 39 39 38 38 38 37 37 38 37
37 37 37 36 35 36 35 35 36 36 35 35 35 34 35 34 35 35 37 37 37 37 37 38 38 38 38 37 37 37 38 38 37 38 38 38 39 39 38 38 37 38 37
36 37 37 37 36 36 36 37 36 36 36 35 36 36 36 36 37 37 38 37 37 37 38 38 38 38 37 37 37 37 38 39 38 38 38 37 38 38 38 38 38 38 37
37 37 37 36 36 36 36 36 35 36 36 36 36 36 36 37 37 38 38 38 38 37 37 37 38 37 37 37 38 37 37 37 37 37 37 38 38 39 39 38 39 37 36
36 36 36 36 37 36 36 36 35 35 36 36 35 35 36 36 37 37 37 38 38 37 37 37 37 37 36 36 37 36 36 36 36 36 36 37 38 38 39 39 38 37 36
36 36 36 36 36 36 36 35 35 35 36 36 35 35 35 35 36 37 38 37 37 36 36 36 36 35 34 34 34 35 35 35 34 35 35 36 37 38 38 38 37 36 35
35 35 35 35 35 35 35 35 34 34 35 35 35 35 34 34 34 34 35 35 34 35 35 35 34 34 33 33 33 33 33 33 33 34 34 36 36 36 36 36 35 35 35
33 33 33 33 33 33 32 32 32 32 33 33 34 34 34 34 34 33 33 33 32 32 32 31 31 31 31 31 31 31 31 31 32 33 33 33 33 33 34 33 33 34 34
32 31 31 31 30 30 30 30 31 31 32 32 32 32 32 32 32 31 31 30 30 30 29 29 29 30 31 31 31 31 31 31 31 31 31 31 31 31 32 32 33 33 33
29 29 29 29 29 29 29 29 29 30 31 31 31 31 30 30 30 30 29 29 29 29 29 29 30 30 30 30 30 30 30 29 30 30 30 30 31 31 31 31 31 32 31
28 28 28 28 28 29 29 29 29 29 29 29 29 29 29 29 29 29 29 29 29 29 29 29 29 29 29 29 28 29 29 29 29 29 29 29 29 29 29 29 29 29 29
26 26 26 27 28 28 29 29 29 28 28 28 28 28 29 29 29 29 29 28 28 28 28 28 28 28 28 28 28 28 28 28 28 28 28 28 28 28 28 28 28 28 28
25 25 25 26 26 27 27 28 28 28 28 28 28 28 28 28 28 27 27 27 26 26 25 25 24 24 25 26 26 27 27 27 27 27 27 28 28 28 27 28 28 28 27
24 24 25 25 25 25 26 26 27 27 28 27 27 27 27 27 27 28 27 27 27 26 25 25 26 26 27 27 26 27 27 27 27 27 27 27 27 27 28 28 28 27 26

GEFSGL_500_meanwind_234.txt.gz
Wind_Speed
15 15 15 14 13 12 13 13 13 12 12 12 13 13 13 13 13 13 13 13 13 13 13 13 13 14 14 14 15 16 16 16 16 17 17 18 19 19 18 19 20 21 21
16 16 16 15 15 15 14 14 14 14 14 15 15 15 15 15 15 15 15 15 15 15 15 15 15 16 16 16 16 16 17 18 18 19 19 19 20 20 20 21 21 21 22
18 19 18 18 18 17 16 16 16 17 17 17 17 17 17 18 18 17 17 17 17 17 17 17 18 18 18 18 18 18 19 19 20 20 20 21 22 21 21 21 22 22 23
21 21 21 20 20 19 19 19 19 19 19 19 20 20 20 20 20 20 20 19 19 19 19 20 20 20 20 20 20 20 20 20 21 21 22 23 24 24 24 24 24 25 25
22 22 22 21 21 21 21 22 22 22 22 22 22 22 22 22 22 22 23 22 22 22 21 22 22 22 22 22 22 22 22 22 22 22 23 23 24 25 26 26 27 27 27
24 23 24 24 24 24 24 24 24 23 23 23 23 23 24 24 24 24 24 24 24 23 23 23 23 23 24 24 24 24 24 24 24 25 25 25 26 26 27 27 28 28 29
26 26 26 25 25 25 26 26 25 25 25 24 24 25 25 25 26 25 25 26 25 25 25 25 25 25 25 25 26 26 26 26 26 27 27 27 28 29 29 30 30 30 30
27 26 27 27 27 27 27 27 27 27 27 27 26 26 27 27 27 27 28 27 27 27 27 27 27 26 26 26 26 27 28 29 29 29 29 29 30 30 31 31 31 32 32
28 29 28 29 29 29 28 28 28 29 30 29 28 28 28 29 29 29 30 29 29 28 28 28 28 28 28 28 29 29 30 30 31 31 31 32 32 32 32 32 33 33 33
29 29 30 31 31 31 31 30 31 31 30 30 31 30 30 30 31 30 31 30 30 30 29 30 31 30 30 30 31 31 31 32 32 33 33 34 33 33 33 33 34 34 34
30 30 30 31 31 32 32 32 31 31 31 31 31 31 31 31 32 31 32 32 31 32 31 31 32 31 31 32 32 32 33 33 33 34 34 34 34 34 34 34 35 35 35
31 31 32 32 32 33 33 32 32 32 31 31 31 32 33 33 33 32 32 32 31 31 31 32 32 32 32 33 33 33 33 34 34 34 34 34 34 35 35 35 36 36 36
32 32 32 33 34 33 33 33 33 33 33 33 31 32 32 34 34 33 33 32 32 32 32 32 32 33 34 34 34 34 34 34 35 35 34 34 34 34 35 35 36 36 36
34 34 34 34 35 34 33 33 33 32 32 33 32 32 31 32 33 33 33 33 33 33 33 33 34 34 35 35 35 34 35 35 35 35 35 35 35 35 36 36 36 37 37
35 35 34 34 35 35 34 33 32 33 33 33 32 32 31 32 33 34 34 34 34 33 34 35 36 36 36 36 35 35 35 35 36 36 36 36 35 35 36 36 36 37 37
35 34 33 34 35 34 34 33 33 33 33 32 32 32 31 32 32 32 32 33 33 34 34 34 35 35 35 35 35 35 35 35 36 36 36 36 36 36 36 36 36 36 35
33 33 34 34 34 34 33 33 33 32 32 32 33 32 32 32 32 32 32 32 33 33 33 33 33 34 34 34 35 35 35 35 35 35 35 36 36 36 36 36 35 35 35
32 32 32 32 32 32 32 32 32 32 31 31 32 32 31 31 31 31 30 31 32 31 31 31 32 34 34 34 34 34 35 35 35 35 35 35 35 35 35 35 35 34 34
30 30 30 30 30 30 30 30 30 30 29 30 30 30 29 29 29 29 29 29 30 30 30 31 32 33 33 33 33 33 34 34 34 34 33 34 34 34 34 34 34 34 35
29 29 29 29 29 29 29 30 29 30 29 29 29 29 28 28 29 29 29 29 29 30 30 31 31 31 31 31 32 32 33 32 32 32 32 32 32 32 33 33 33 34 33
28 28 29 28 27 28 29 29 29 29 29 29 28 27 27 27 28 28 29 28 29 29 28 28 29 29 30 30 31 31 31 32 32 32 31 30 30 30 31 32 32 32 31
27 27 27 27 26 27 27 28 29 28 28 27 27 27 26 27 27 27 27 27 27 27 26 27 28 28 29 30 30 31 30 30 30 29 29 29 29 29 29 30 30 30 30
26 26 26 26 26 27 27 27 27 27 27 27 27 27 27 27 27 26 26 26 26 27 27 27 27 27 28 29 29 29 29 29 29 29 29 29 28 28 28 29 29 29 29
25 25 25 25 25 25 25 25 26 26 27 27 27 27 27 27 27 26 26 26 26 26 27 27 27 27 28 29 29 29 29 29 28 28 28 28 28 28 27 27 26 26 26
23 24 23 23 23 23 23 23 24 25 25 25 26 26 26 26 27 27 27 28 28 28 28 28 29 29 29 29 29 29 29 29 29 28 28 28 27 27 26 26 26 25 25
22 22 21 22 22 22 23 23 24 24 25 25 25 25 26 26 27 27 28 28 28 29 29 30 30 30 30 30 30 29 29 29 29 29 28 27 27 27 27 27 26 25 25

GEFSGL_500_meanwind_240.txt.gz
Wind_Speed
18 17 17 16 15 15 14 14 14 15 15 15 14 14 14 15 15 15 15 15 15 16 16 16 17 17 18 18 18 18 18 19 19 20 20 21 21 21 21 21 21 20 21
21 20 19 18 17 17 16 16 16 17 17 17 17 17 17 17 17 17 18 18 18 18 18 18 19 20 20 20 20 20 21 21 21 21 22 22 23 23 23 23 23 23 23
23 21 20 20 20 19 19 18 18 18 18 18 18 18 19 19 19 20 20 20 20 20 20 20 21 21 22 23 23 23 23 23 23 23 23 24 24 25 25 26 26 26 26
22 22 22 21 21 22 22 21 21 21 20 19 20 20 21 21 21 22 22 22 22 22 22 22 23 23 23 24 24 25 25 25 25 25 25 26 27 27 27 27 28 28 28
24 23 23 23 24 24 24 24 24 23 24 23 23 22 23 23 23 24 23 23 23 24 25 25 25 25 26 26 26 27 26 26 26 26 27 27 28 29 29 29 30 30 30
26 25 24 25 25 25 26 26 26 25 24 24 23 23 24 24 24 25 25 25 25 26 26 27 27 28 28 28 27 28 28 28 27 27 28 29 29 29 29 31 31 32 32
27 26 26 26 27 26 26 27 27 26 24 25 25 25 25 25 24 25 26 27 27 28 28 28 29 29 30 30 29 29 28 28 28 29 29 30 30 30 30 30 31 31 32
27 28 28 27 27 27 27 27 28 28 27 27 27 27 26 26 26 27 28 29 29 29 29 29 30 30 30 31 32 31 31 30 30 30 30 31 32 32 32 32 33 32 33
29 29 28 28 28 28 28 29 29 29 28 29 29 29 29 28 29 30 31 31 32 32 32 32 32 32 32 32 32 32 32 31 31 31 31 32 34 34 34 34 34 34 34
29 30 30 30 30 29 30 30 30 30 30 31 31 31 30 30 31 31 32 33 33 33 33 33 34 34 34 33 32 32 32 32 33 33 33 33 34 35 35 35 35 35 35
31 30 29 29 29 30 31 31 31 32 32 32 31 31 31 31 32 33 33 34 33 33 34 34 34 34 34 34 33 33 33 33 34 33 33 34 34 35 36 36 37 36 36
30 30 30 30 29 30 31 31 32 32 33 33 32 32 32 32 33 34 34 34 34 35 35 35 36 36 35 35 35 35 35 34 34 34 34 34 35 36 36 36 37 36 36
30 30 31 31 32 32 32 32 33 34 34 34 33 33 33 34 34 34 35 35 36 36 37 37 37 37 37 36 36 37 37 36 36 35 35 35 36 36 35 35 36 37 37
30 31 32 32 32 32 32 33 34 34 35 34 34 34 34 34 35 36 36 36 37 37 38 38 38 37 37 37 37 37 37 37 37 37 37 37 37 36 36 36 37 37 37
31 31 32 32 32 32 32 32 33 33 34 34 35 35 35 35 35 36 37 36 36 36 37 36 37 38 38 37 37 37 37 37 37 37 38 38 38 37 37 37 37 36 36
31 31 32 31 30 31 31 31 32 32 33 33 33 34 33 34 35 35 36 36 36 36 36 35 35 36 36 36 37 38 38 37 37 38 38 38 38 37 37 37 37 37 37
31 30 30 30 29 30 30 31 31 31 31 32 33 33 33 33 34 34 35 36 35 35 35 35 35 35 35 36 36 37 37 37 37 38 38 37 37 37 37 37 37 37 36
29 29 29 29 29 29 30 31 31 31 31 31 31 31 32 32 32 32 32 33 33 33 34 34 34 35 35 35 35 35 36 37 37 37 36 36 36 36 37 37 36 36 35
28 28 28 29 29 30 30 30 30 30 30 30 31 30 30 29 29 30 31 31 32 32 33 33 34 34 34 34 34 34 34 34 35 35 35 35 36 36 36 36 35 35 34
27 28 28 29 28 28 28 28 28 29 29 29 29 28 28 29 29 28 29 30 30 29 30 30 31 31 31 32 32 32 32 33 34 34 34 35 35 35 35 35 35 34 33
27 27 27 27 28 27 27 27 28 28 29 28 29 29 29 29 29 29 29 29 30 30 30 30 29 30 31 32 32 32 33 33 33 33 33 33 34 34 34 34 34 34 33
26 26 26 26 27 26 26 27 28 29 30 30 30 30 30 30 30 29 30 30 30 29 29 30 30 31 32 32 32 32 32 32 32 32 32 32 32 33 33 33 33 33 33
25 25 25 25 25 26 26 27 27 28 29 30 29 29 30 30 29 29 29 29 29 29 29 30 30 31 31 31 31 32 32 32 31 32 32 32 32 32 32 32 31 31 31
24 24 24 24 25 26 27 27 27 28 28 28 27 28 28 28 29 29 29 29 29 30 30 31 30 30 30 30 31 31 31 32 31 31 32 32 32 31 32 32 32 32 31
23 24 24 24 25 26 26 26 26 26 26 26 27 27 28 28 28 28 28 29 29 30 31 31 31 31 31 31 31 31 31 31 32 32 32 32 31 32 32 32 31 31 31
22 23 24 24 24 24 25 25 25 25 25 26 27 27 28 28 28 28 28 29 30 30 30 31 31 31 31 31 32 32 31 31 32 32 32 31 31 31 31 31 30 30 29